GREAT EAST LAKE DAM: From 10/10/2019 00:00 to 12/11/2019 00:00

Date LAKE ELEVATION [FT] PRECIPITATION INCREMENT [IN] PRECIPITATION TOTAL [IN] AIR TEMPERATURE [F] RELATIVE HUMIDITY [%]
12/09/2019 09:00 571.23 0.00 -- 35.2 100.0
12/09/2019 08:00 571.21 0.00 -- 34.8 100.0
12/09/2019 07:00 571.22 0.00 -- 33.8 100.0
12/09/2019 06:00 571.20 0.00 -- 33.5 100.0
12/09/2019 05:00 571.20 0.00 -- 33.2 100.0
12/09/2019 04:00 571.24 0.00 -- 33.0 100.0
12/09/2019 03:00 571.21 0.00 -- 33.0 100.0
12/09/2019 02:00 571.20 0.00 -- 33.3 100.0
12/09/2019 01:00 571.22 0.00 -- 32.8 100.0
12/09/2019 00:00 571.24 0.00 -- 32.6 100.0
12/08/2019 23:00 571.21 0.00 -- 30.5 100.0
12/08/2019 22:00 571.21 0.00 -- 29.4 100.0
12/08/2019 21:00 571.22 0.00 -- 28.6 100.0
12/08/2019 20:00 571.21 0.00 -- 28.1 100.0
12/08/2019 19:00 571.23 0.00 -- 29.5 100.0
12/08/2019 18:00 571.24 0.00 -- 29.7 100.0
12/08/2019 17:00 571.24 0.00 -- 29.2 100.0
12/08/2019 16:00 571.21 0.00 -- 28.4 100.0
12/08/2019 15:00 571.24 0.00 -- 27.1 100.0
12/08/2019 14:00 571.23 0.00 -- 27.9 100.0
12/08/2019 13:00 571.22 0.00 -- 28.3 100.0
12/08/2019 12:00 571.24 0.00 -- 28.7 100.0
12/08/2019 11:00 571.22 0.00 -- 29.2 100.0
12/08/2019 10:00 571.24 0.00 -- 30.4 100.0
12/08/2019 09:00 571.22 0.00 -- 31.5 100.0
12/08/2019 08:00 571.25 0.00 -- 31.5 100.0
12/08/2019 07:00 571.23 0.00 -- 29.4 100.0
12/08/2019 06:00 571.24 0.00 -- 27.5 100.0
12/08/2019 05:00 571.23 0.00 -- 23.9 100.0
12/08/2019 04:00 571.23 0.00 -- 18.1 100.0
12/08/2019 03:00 571.22 0.00 -- 11.9 100.0
12/08/2019 02:00 571.23 0.00 -- 8.4 100.0
12/08/2019 01:00 571.22 0.00 -- 10.3 100.0
12/08/2019 00:00 571.23 0.00 0.00 11.5 100.0
12/07/2019 23:00 571.22 0.00 -- 12.4 100.0
12/07/2019 22:00 571.24 0.00 -- 14.4 100.0
12/07/2019 21:00 571.24 0.00 -- 15.6 100.0
12/07/2019 20:00 571.26 0.00 -- 18.1 100.0
12/07/2019 19:00 571.24 0.00 -- 19.0 100.0
12/07/2019 18:00 571.23 0.00 -- 19.2 100.0
12/07/2019 17:00 571.24 0.00 -- 16.6 100.0
12/07/2019 16:00 571.24 0.00 -- 16.6 100.0
12/07/2019 15:00 571.24 0.00 -- 17.4 100.0
12/07/2019 14:00 571.24 0.00 -- 21.3 100.0
12/07/2019 13:00 571.24 0.00 -- 22.9 100.0
12/07/2019 12:00 571.25 0.00 -- 20.8 100.0
12/07/2019 11:00 571.26 0.00 -- 24.9 100.0
12/07/2019 10:00 571.26 0.00 -- 26.0 100.0
12/07/2019 09:00 571.26 0.00 -- 26.7 100.0
12/07/2019 08:00 571.24 0.00 -- 27.0 100.0
12/07/2019 07:00 571.25 0.00 -- 26.5 100.0
12/07/2019 06:00 571.25 0.00 -- 25.8 100.0
12/07/2019 05:00 571.27 0.00 -- 24.7 100.0
12/07/2019 04:00 571.26 0.00 -- 23.3 100.0
12/07/2019 03:00 571.26 0.00 -- 20.9 100.0
12/07/2019 02:00 571.26 0.00 -- 16.7 100.0
12/07/2019 01:00 571.26 0.00 -- 18.9 100.0
12/07/2019 00:00 571.25 0.00 0.00 20.1 100.0
12/06/2019 23:00 571.27 0.00 -- 20.8 100.0
12/06/2019 22:00 571.26 0.00 -- 21.6 100.0
12/06/2019 21:00 571.26 0.00 -- 22.9 100.0
12/06/2019 20:00 571.27 0.00 -- 24.3 100.0
12/06/2019 19:00 571.27 0.00 -- 25.6 100.0
12/06/2019 18:00 571.26 0.00 -- 24.7 100.0
12/06/2019 17:00 571.27 0.00 -- 25.7 100.0
12/06/2019 16:00 571.26 0.00 -- 26.7 100.0
12/06/2019 15:00 571.29 0.00 -- 26.8 100.0
12/06/2019 14:00 571.27 0.00 -- 27.3 100.0
12/06/2019 13:00 571.27 0.00 -- 27.0 100.0
12/06/2019 12:00 571.26 0.00 -- 27.0 100.0
12/06/2019 11:00 571.25 0.00 -- 27.2 100.0
12/06/2019 10:00 571.26 0.00 -- 28.0 100.0
12/06/2019 09:00 571.27 0.00 -- 29.6 100.0
12/06/2019 08:00 571.26 0.00 -- 29.9 100.0
12/06/2019 07:00 571.27 0.00 -- 29.8 100.0
12/06/2019 06:00 571.24 0.00 -- 28.9 100.0
12/06/2019 05:00 571.27 0.00 -- 28.1 100.0
12/06/2019 04:00 571.27 0.00 -- 26.7 100.0
12/06/2019 03:00 571.25 0.00 -- 25.9 100.0
12/06/2019 02:00 571.28 0.00 -- 25.3 100.0
12/06/2019 01:00 571.27 0.00 -- 24.8 100.0
12/06/2019 00:00 571.26 0.00 0.00 25.0 100.0
12/05/2019 23:00 571.26 0.00 -- 25.0 100.0
12/05/2019 22:00 571.29 0.00 -- 25.1 100.0
12/05/2019 21:00 571.29 0.00 -- 25.8 100.0
12/05/2019 20:00 571.27 0.00 -- 25.8 100.0
12/05/2019 19:00 571.30 0.00 -- 26.6 100.0
12/05/2019 18:00 571.29 0.01 -- 27.3 100.0
12/05/2019 17:00 571.30 0.00 -- 29.1 100.0
12/05/2019 16:00 571.28 0.00 -- 30.7 100.0
12/05/2019 15:00 571.28 0.00 -- 31.8 100.0
12/05/2019 14:00 571.29 0.00 -- 32.4 100.0
12/05/2019 13:00 571.26 0.00 -- 32.7 100.0
12/05/2019 12:00 571.30 0.00 -- 32.9 100.0
12/05/2019 11:00 571.30 0.02 -- 36.5 100.0
12/05/2019 10:00 571.27 0.01 -- 36.9 100.0
12/05/2019 09:00 571.30 0.04 -- 37.8 100.0
12/05/2019 08:00 571.27 0.02 -- 38.0 100.0
12/05/2019 07:00 571.30 0.02 -- 38.1 100.0
12/05/2019 06:00 571.28 0.02 -- 36.8 100.0
12/05/2019 05:00 571.29 0.01 -- 36.0 100.0
12/05/2019 04:00 571.28 0.00 -- 34.3 100.0
12/05/2019 03:00 571.29 0.00 -- 32.0 100.0
12/05/2019 02:00 571.29 0.00 -- 28.6 100.0
12/05/2019 01:00 571.29 0.00 -- 21.1 100.0
12/05/2019 00:00 571.29 0.00 0.15 21.9 100.0
12/04/2019 23:00 571.28 0.00 -- 21.7 100.0
12/04/2019 22:00 571.29 0.00 -- 22.7 100.0
12/04/2019 21:00 571.29 0.00 -- 23.6 100.0
12/04/2019 20:00 571.29 0.00 -- 24.8 100.0
12/04/2019 19:00 571.29 0.00 -- 24.4 100.0
12/04/2019 18:00 571.29 0.00 -- 24.7 100.0
12/04/2019 17:00 571.29 0.00 -- 26.3 100.0
12/04/2019 16:00 571.28 0.00 -- 28.2 100.0
12/04/2019 15:00 571.30 0.00 -- 27.9 100.0
12/04/2019 14:00 571.29 0.00 -- 28.7 100.0
12/04/2019 13:00 571.29 0.00 -- 29.2 100.0
12/04/2019 12:00 571.29 0.00 -- 30.7 100.0
12/04/2019 11:00 571.31 0.00 -- 32.3 100.0
12/04/2019 10:00 571.30 0.00 -- 34.6 100.0
12/04/2019 09:00 571.29 0.00 -- 35.2 100.0
12/04/2019 08:00 571.29 0.00 -- 35.1 100.0
12/04/2019 07:00 571.30 0.00 -- 33.4 100.0
12/04/2019 06:00 571.30 0.00 -- 33.2 100.0
12/04/2019 05:00 571.31 0.00 -- 33.2 100.0
12/04/2019 04:00 571.31 0.00 -- 31.3 100.0
12/04/2019 03:00 571.32 0.00 -- 27.9 100.0
12/04/2019 02:00 571.33 0.00 -- 28.6 100.0
12/04/2019 01:00 571.32 0.00 -- 29.0 100.0
12/04/2019 00:00 571.31 0.00 0.00 28.7 100.0
12/03/2019 23:00 571.30 0.00 -- 27.5 100.0
12/03/2019 22:00 571.34 0.00 -- 27.2 100.0
12/03/2019 21:00 571.28 0.00 -- 26.4 100.0
12/03/2019 20:00 571.31 0.00 -- 26.7 100.0
12/03/2019 19:00 571.30 0.00 -- 24.5 100.0
12/03/2019 18:00 571.29 0.00 -- 24.3 100.0
12/03/2019 17:00 571.30 0.00 -- 26.6 100.0
12/03/2019 16:00 571.29 0.00 -- 24.8 100.0
12/03/2019 15:00 571.32 0.00 -- 27.1 100.0
12/03/2019 14:00 571.32 0.00 -- 28.0 100.0
12/03/2019 13:00 571.28 0.00 -- 27.2 100.0
12/03/2019 12:00 571.31 0.00 -- 28.0 100.0
12/03/2019 11:00 571.31 0.00 -- 27.9 100.0
12/03/2019 10:00 571.33 0.00 -- 28.7 100.0
12/03/2019 09:00 571.31 0.00 -- 29.7 90.0
12/03/2019 08:00 571.32 0.00 -- 31.0 100.0
12/03/2019 07:00 571.32 0.00 -- 31.3 100.0
12/03/2019 06:00 571.32 0.00 -- 30.7 100.0
12/03/2019 05:00 571.32 0.00 -- 29.6 100.0
12/03/2019 04:00 571.31 0.00 -- 28.8 100.0
12/03/2019 03:00 571.30 0.00 -- 27.8 100.0
12/03/2019 02:00 571.30 0.00 -- 27.3 100.0
12/03/2019 01:00 571.30 0.00 -- 26.9 100.0
12/03/2019 00:00 571.31 0.00 0.00 27.0 100.0
12/02/2019 23:00 571.30 0.00 -- 26.6 100.0
12/02/2019 22:00 571.27 0.00 -- 26.1 100.0
12/02/2019 21:00 571.29 0.00 -- 26.7 100.0
12/02/2019 20:00 571.31 0.00 -- 26.8 100.0
12/02/2019 19:00 571.29 0.00 -- 26.9 100.0
12/02/2019 18:00 571.30 0.00 -- 28.5 100.0
12/02/2019 17:00 571.33 0.00 -- 28.7 100.0
12/02/2019 16:00 571.31 0.00 -- 27.4 100.0
12/02/2019 15:00 571.30 0.00 -- 28.0 100.0
12/02/2019 14:00 571.31 0.00 -- 29.0 100.0
12/02/2019 13:00 571.34 0.00 -- 29.3 100.0
12/02/2019 12:00 571.31 0.00 -- 29.6 100.0
12/02/2019 11:00 571.31 0.00 -- 29.8 100.0
12/02/2019 10:00 571.31 0.00 -- 30.3 100.0
12/02/2019 09:00 571.31 0.00 -- 30.7 100.0
12/02/2019 08:00 571.35 0.00 -- 30.5 100.0
12/02/2019 07:00 571.30 0.00 -- 29.7 100.0
12/02/2019 06:00 571.31 0.00 -- 29.0 100.0
12/02/2019 05:00 571.31 0.00 -- 26.9 100.0
12/02/2019 04:00 571.31 0.00 -- 25.5 100.0
12/02/2019 03:00 571.32 0.00 -- 24.7 100.0
12/02/2019 02:00 571.31 0.00 -- 24.4 100.0
12/02/2019 01:00 571.32 0.00 -- 24.5 100.0
12/02/2019 00:00 571.32 0.00 0.00 24.4 100.0
12/01/2019 23:00 571.32 0.00 -- 24.0 100.0
12/01/2019 22:00 571.31 0.00 -- 23.5 100.0
12/01/2019 21:00 571.31 0.00 -- 23.0 100.0
12/01/2019 20:00 571.32 0.00 -- 22.9 100.0
12/01/2019 19:00 571.32 0.00 -- 23.1 100.0
12/01/2019 18:00 571.32 0.00 -- 23.8 100.0
12/01/2019 17:00 571.32 0.00 -- 23.8 100.0
12/01/2019 16:00 571.28 0.00 -- 29.6 100.0
12/01/2019 15:00 571.30 0.00 -- 30.0 100.0
12/01/2019 14:00 571.30 0.00 -- 29.8 100.0
12/01/2019 13:00 571.30 0.00 -- 29.5 100.0
12/01/2019 12:00 571.30 0.00 -- 29.3 100.0
12/01/2019 11:00 571.31 0.00 -- 29.0 100.0
12/01/2019 10:00 571.31 0.00 -- 28.8 100.0
12/01/2019 09:00 571.31 0.00 -- 28.6 100.0
12/01/2019 08:00 571.31 0.00 -- 28.3 100.0
12/01/2019 07:00 571.31 0.00 -- 28.1 100.0
12/01/2019 06:00 571.31 0.00 -- 27.9 100.0
12/01/2019 05:00 571.31 0.00 -- 27.6 100.0
12/01/2019 04:00 571.32 0.00 -- 27.4 100.0
12/01/2019 03:00 571.32 0.00 -- 27.1 100.0
12/01/2019 02:00 571.32 0.00 -- 26.9 100.0
12/01/2019 01:00 571.32 0.00 -- 26.7 100.0
12/01/2019 00:00 571.32 0.00 0.00 26.4 100.0
11/30/2019 23:00 571.32 0.00 -- 26.2 100.0
11/30/2019 22:00 571.33 0.00 -- 25.9 100.0
11/30/2019 21:00 571.33 0.00 -- 25.7 100.0
11/30/2019 20:00 571.33 0.00 -- 25.5 100.0
11/30/2019 19:00 571.33 0.00 -- 25.2 100.0
11/30/2019 18:00 571.33 0.00 -- 25.0 100.0
11/30/2019 17:00 571.33 0.00 -- 24.8 100.0
11/30/2019 16:00 571.33 0.00 -- 24.5 100.0
11/30/2019 15:00 571.34 0.00 -- 24.3 100.0
11/30/2019 14:00 571.34 0.00 -- 24.0 100.0
11/30/2019 13:00 571.34 0.00 -- 23.8 100.0
11/30/2019 12:00 571.34 0.00 -- 23.6 100.0
11/30/2019 11:00 571.34 0.00 -- 23.3 100.0
11/30/2019 10:00 571.34 0.00 -- 23.1 100.0
11/30/2019 09:00 571.34 0.00 -- 22.9 100.0
11/30/2019 08:00 571.35 0.00 -- 22.6 100.0
11/30/2019 07:00 571.35 0.00 -- 22.4 100.0
11/30/2019 06:00 571.35 0.00 -- 22.1 100.0
11/30/2019 05:00 571.35 0.00 -- 21.9 100.0
11/30/2019 04:00 571.32 0.00 -- 22.2 100.0
11/30/2019 03:00 571.33 0.00 -- 22.5 100.0
11/30/2019 02:00 571.33 0.00 -- 22.8 100.0
11/30/2019 01:00 571.36 0.00 -- 23.2 100.0
11/30/2019 00:00 571.37 0.00 0.00 23.8 100.0
11/29/2019 23:00 571.32 0.00 -- 24.0 100.0
11/29/2019 22:00 571.33 0.00 -- 23.9 100.0
11/29/2019 21:00 571.35 0.00 -- 24.2 100.0
11/29/2019 20:00 571.33 0.00 -- 25.6 100.0
11/29/2019 19:00 571.34 0.00 -- 26.0 100.0
11/29/2019 18:00 571.34 0.00 -- 26.9 100.0
11/29/2019 17:00 571.32 0.00 -- 28.0 100.0
11/29/2019 16:00 571.34 0.00 -- 29.0 100.0
11/29/2019 15:00 571.34 0.00 -- 29.4 100.0
11/29/2019 14:00 571.37 0.00 -- 30.4 100.0
11/29/2019 13:00 571.34 0.00 -- 31.1 100.0
11/29/2019 12:00 571.33 0.00 -- 32.9 100.0
11/29/2019 11:00 571.36 0.00 -- 33.1 100.0
11/29/2019 10:00 571.37 0.00 -- 34.6 100.0
11/29/2019 09:00 571.31 0.00 -- 35.4 100.0
11/29/2019 08:00 571.35 0.00 -- 36.3 100.0
11/29/2019 07:00 571.34 0.00 -- 36.1 100.0
11/29/2019 06:00 571.35 0.00 -- 34.4 100.0
11/29/2019 05:00 571.34 0.00 -- 32.3 100.0
11/29/2019 04:00 571.35 0.00 -- 30.6 100.0
11/29/2019 03:00 571.33 0.00 -- 29.5 100.0
11/29/2019 02:00 571.34 0.00 -- 29.0 100.0
11/29/2019 01:00 571.37 0.00 -- 29.4 100.0
11/29/2019 00:00 571.35 0.00 0.00 29.2 100.0
11/28/2019 23:00 571.36 0.00 -- 29.8 100.0
11/28/2019 22:00 571.34 0.00 -- 30.2 100.0
11/28/2019 21:00 571.37 0.00 -- 29.9 100.0
11/28/2019 20:00 571.35 0.00 -- 30.7 100.0
11/28/2019 19:00 571.34 0.00 -- 31.9 100.0
11/28/2019 18:00 571.35 0.00 -- 33.4 100.0
11/28/2019 17:00 571.35 0.00 -- 33.3 100.0
11/28/2019 16:00 571.35 0.00 -- 33.1 100.0
11/28/2019 15:00 571.35 0.00 -- 33.1 100.0
11/28/2019 14:00 571.32 0.00 -- 33.4 100.0
11/28/2019 13:00 571.32 0.00 -- 34.3 100.0
11/28/2019 12:00 571.33 0.00 -- 34.8 100.0
11/28/2019 11:00 571.35 0.00 -- 36.8 89.0
11/28/2019 10:00 571.33 0.00 -- 39.0 77.0
11/28/2019 09:00 571.35 0.00 -- 40.5 56.0
11/28/2019 08:00 571.35 0.00 -- 38.8 48.0
11/28/2019 07:00 571.35 0.00 -- 38.6 43.0
11/28/2019 06:00 571.34 0.00 -- 37.9 43.0
11/28/2019 05:00 571.34 0.01 -- 37.9 43.0
11/28/2019 04:00 571.33 0.00 -- 37.8 46.0
11/28/2019 03:00 571.32 0.01 -- 37.2 48.0
11/28/2019 02:00 571.34 0.00 -- 36.7 48.0
11/28/2019 01:00 571.33 0.02 -- 36.0 50.0
11/28/2019 00:00 571.34 0.04 0.04 34.9 50.0
11/27/2019 23:00 571.33 0.02 -- 35.4 51.0
11/27/2019 22:00 571.35 0.00 -- 35.8 51.0
11/27/2019 21:00 571.32 0.00 -- 36.2 50.0
11/27/2019 20:00 571.34 0.01 -- 37.0 51.0
11/27/2019 19:00 571.35 0.01 -- 36.9 52.0
11/27/2019 18:00 571.30 0.08 -- 36.7 53.0
11/27/2019 17:00 571.31 0.03 -- 37.0 53.0
11/27/2019 16:00 571.33 0.06 -- 37.6 55.0
11/27/2019 15:00 571.32 0.15 -- 38.7 54.0
11/27/2019 14:00 571.30 0.13 -- 39.9 54.0
11/27/2019 13:00 571.31 0.00 -- 40.3 55.0
11/27/2019 12:00 571.30 0.00 -- 41.8 54.0
11/27/2019 11:00 571.28 0.00 -- 42.5 57.0
11/27/2019 10:00 571.31 0.00 -- 42.6 56.0
11/27/2019 09:00 571.30 0.00 -- 44.2 54.0
11/27/2019 08:00 571.28 0.00 -- 44.6 57.0
11/27/2019 07:00 571.29 0.00 -- 44.7 59.0
11/27/2019 06:00 571.27 0.00 -- 40.9 73.0
11/27/2019 05:00 571.28 0.00 -- 37.4 75.0
11/27/2019 04:00 571.29 0.00 -- 34.1 78.0
11/27/2019 03:00 571.29 0.00 -- 31.9 76.0
11/27/2019 02:00 571.29 0.00 -- 29.8 76.0
11/27/2019 01:00 571.30 0.00 -- 29.0 74.0
11/27/2019 00:00 571.28 0.00 0.53 29.3 71.0
11/26/2019 23:00 571.31 0.00 -- 30.0 70.0
11/26/2019 22:00 571.29 0.00 -- 30.2 67.0
11/26/2019 21:00 571.30 0.00 -- 31.0 64.0
11/26/2019 20:00 571.29 0.00 -- 32.4 63.0
11/26/2019 19:00 571.29 0.00 -- 31.8 63.0
11/26/2019 18:00 571.30 0.00 -- 32.8 61.0
11/26/2019 17:00 571.28 0.00 -- 34.8 60.0
11/26/2019 16:00 571.29 0.00 -- 36.1 58.0
11/26/2019 15:00 571.30 0.00 -- 37.8 58.0
11/26/2019 14:00 571.27 0.00 -- 38.9 59.0
11/26/2019 13:00 571.30 0.00 -- 41.3 59.0
11/26/2019 12:00 571.29 0.00 -- 43.6 60.0
11/26/2019 11:00 571.29 0.00 -- 48.9 56.0
11/26/2019 10:00 571.30 0.00 -- 52.5 52.0
11/26/2019 09:00 571.30 0.00 -- 53.1 50.0
11/26/2019 08:00 571.29 0.00 -- 52.1 55.0
11/26/2019 07:00 571.31 0.00 -- 49.4 64.0
11/26/2019 06:00 571.29 0.00 -- 42.0 86.0
11/26/2019 05:00 571.30 0.00 -- 36.0 94.0
11/26/2019 04:00 571.30 0.00 -- 30.9 95.0
11/26/2019 03:00 571.31 0.00 -- 28.9 94.0
11/26/2019 02:00 571.31 0.00 -- 29.0 93.0
11/26/2019 01:00 571.29 0.00 -- 29.4 91.0
11/26/2019 00:00 571.31 0.00 0.00 29.7 91.0
11/25/2019 23:00 571.29 0.00 -- 29.8 88.0
11/25/2019 22:00 571.29 0.00 -- 30.4 87.0
11/25/2019 21:00 571.30 0.00 -- 32.4 86.0
11/25/2019 20:00 571.30 0.00 -- 33.1 84.0
11/25/2019 19:00 571.28 0.00 -- 33.0 85.0
11/25/2019 18:00 571.28 0.00 -- 33.0 86.0
11/25/2019 17:00 571.30 0.00 -- 33.1 85.0
11/25/2019 16:00 571.30 0.00 -- 32.6 85.0
11/25/2019 15:00 571.30 0.00 -- 32.4 84.0
11/25/2019 14:00 571.28 0.00 -- 33.0 82.0
11/25/2019 13:00 571.29 0.00 -- 35.6 82.0
11/25/2019 12:00 571.29 0.00 -- 37.6 82.0
11/25/2019 11:00 571.29 0.00 -- 42.5 80.0
11/25/2019 10:00 571.29 0.00 -- 44.2 82.0
11/25/2019 09:00 571.31 0.00 -- 44.1 76.0
11/25/2019 08:00 571.29 0.00 -- 43.9 73.0
11/25/2019 07:00 571.31 0.00 -- 43.3 57.0
11/25/2019 06:00 571.30 0.00 -- 41.4 57.0
11/25/2019 05:00 571.30 0.00 -- 40.0 59.0
11/25/2019 04:00 571.32 0.00 -- 38.5 56.0
11/25/2019 03:00 571.28 0.00 -- 36.9 57.0
11/25/2019 02:00 571.31 0.00 -- 36.7 54.0
11/25/2019 01:00 571.28 0.00 -- 32.9 53.0
11/25/2019 00:00 571.28 0.00 0.00 33.7 48.0
11/24/2019 23:00 571.31 0.00 -- 37.0 42.0
11/24/2019 22:00 571.27 0.00 -- 37.4 38.0
11/24/2019 21:00 571.29 0.00 -- 37.5 37.0
11/24/2019 20:00 571.26 0.00 -- 37.2 42.0
11/24/2019 19:00 571.29 0.00 -- 36.8 49.0
11/24/2019 18:00 571.28 0.01 -- 36.1 52.0
11/24/2019 17:00 571.27 0.02 -- 36.6 58.0
11/24/2019 16:00 571.28 0.01 -- 35.9 59.0
11/24/2019 15:00 571.29 0.02 -- 35.5 70.0
11/24/2019 14:00 571.29 0.01 -- 34.3 97.0
11/24/2019 13:00 571.27 0.24 -- 33.9 100.0
11/24/2019 12:00 571.21 0.22 -- 33.7 100.0
11/24/2019 11:00 571.30 0.19 -- 33.2 100.0
11/24/2019 10:00 571.20 0.14 -- 32.6 100.0
11/24/2019 09:00 571.19 0.07 -- 32.0 100.0
11/24/2019 08:00 571.18 0.10 -- 31.6 100.0
11/24/2019 07:00 571.18 0.02 -- 31.9 100.0
11/24/2019 06:00 571.18 0.06 -- 31.9 100.0
11/24/2019 05:00 571.17 0.00 -- 31.9 100.0
11/24/2019 04:00 571.16 0.00 -- 31.5 100.0
11/24/2019 03:00 571.16 0.00 -- 31.1 100.0
11/24/2019 02:00 571.16 0.00 -- 30.5 100.0
11/24/2019 01:00 571.18 0.00 -- 30.6 100.0
11/24/2019 00:00 571.17 0.00 1.11 30.1 100.0
11/23/2019 23:00 571.18 0.00 -- 27.9 100.0
11/23/2019 22:00 571.18 0.00 -- 28.4 100.0
11/23/2019 21:00 571.18 0.00 -- 28.7 100.0
11/23/2019 20:00 571.16 0.00 -- 30.8 100.0
11/23/2019 19:00 571.17 0.00 -- 28.9 100.0
11/23/2019 18:00 571.17 0.00 -- 31.5 100.0
11/23/2019 17:00 571.17 0.00 -- 31.8 100.0
11/23/2019 16:00 571.18 0.00 -- 31.2 100.0
11/23/2019 15:00 571.18 0.00 -- 31.1 100.0
11/23/2019 14:00 571.19 0.00 -- 31.2 100.0
11/23/2019 13:00 571.17 0.00 -- 35.3 100.0
11/23/2019 12:00 571.17 0.00 -- 38.3 100.0
11/23/2019 11:00 571.22 0.00 -- 37.3 100.0
11/23/2019 10:00 571.18 0.00 -- 37.1 100.0
11/23/2019 09:00 571.20 0.00 -- 34.3 100.0
11/23/2019 08:00 571.21 0.00 -- 34.1 100.0
11/23/2019 07:00 571.20 0.00 -- 32.1 100.0
11/23/2019 06:00 571.21 0.00 -- 31.6 100.0
11/23/2019 05:00 571.21 0.00 -- 29.9 100.0
11/23/2019 04:00 571.19 0.00 -- 28.9 100.0
11/23/2019 03:00 571.22 0.00 -- 27.9 100.0
11/23/2019 02:00 571.20 0.00 -- 29.1 100.0
11/23/2019 01:00 571.18 0.00 -- 29.1 100.0
11/23/2019 00:00 571.21 0.00 0.00 28.9 100.0
11/22/2019 23:00 571.20 0.00 -- 29.5 100.0
11/22/2019 22:00 571.22 0.00 -- 29.6 100.0
11/22/2019 21:00 571.21 0.00 -- 30.3 100.0
11/22/2019 20:00 571.20 0.00 -- 31.1 100.0
11/22/2019 19:00 571.19 0.00 -- 31.8 100.0
11/22/2019 18:00 571.26 0.00 -- 32.3 100.0
11/22/2019 17:00 571.23 0.00 -- 32.9 100.0
11/22/2019 16:00 571.18 0.00 -- 34.3 100.0
11/22/2019 15:00 571.24 0.00 -- 35.9 82.0
11/22/2019 14:00 571.18 0.00 -- 37.9 48.0
11/22/2019 13:00 571.22 0.00 -- 40.4 43.0
11/22/2019 12:00 571.22 0.00 -- 41.6 42.0
11/22/2019 11:00 571.22 0.00 -- 42.2 45.0
11/22/2019 10:00 571.26 0.02 -- 41.8 46.0
11/22/2019 09:00 571.22 0.06 -- 41.5 45.0
11/22/2019 08:00 571.20 0.01 -- 42.2 45.0
11/22/2019 07:00 571.22 0.00 -- 43.7 48.0
11/22/2019 06:00 571.25 0.00 -- 41.5 50.0
11/22/2019 05:00 571.20 0.00 -- 38.8 50.0
11/22/2019 04:00 571.21 0.00 -- 38.1 51.0
11/22/2019 03:00 571.21 0.00 -- 37.0 52.0
11/22/2019 02:00 571.22 0.00 -- 35.3 53.0
11/22/2019 01:00 571.23 0.00 -- 33.9 54.0
11/22/2019 00:00 571.21 0.00 0.09 34.5 53.0
11/21/2019 23:00 571.19 0.00 -- 33.3 54.0
11/21/2019 22:00 571.19 0.00 -- 33.6 54.0
11/21/2019 21:00 571.14 0.00 -- 32.3 54.0
11/21/2019 20:00 571.19 0.00 -- 30.9 53.0
11/21/2019 19:00 571.20 0.00 -- 30.6 54.0
11/21/2019 18:00 571.21 0.00 -- 30.1 54.0
11/21/2019 17:00 571.19 0.00 -- 29.8 53.0
11/21/2019 16:00 571.20 0.00 -- 29.6 54.0
11/21/2019 15:00 571.21 0.00 -- 30.2 52.0
11/21/2019 14:00 571.22 0.00 -- 31.3 53.0
11/21/2019 13:00 571.22 0.00 -- 33.1 52.0
11/21/2019 12:00 571.23 0.00 -- 36.5 52.0
11/21/2019 11:00 571.23 0.00 -- 40.1 51.0
11/21/2019 10:00 571.23 0.00 -- 42.4 50.0
11/21/2019 09:00 571.23 0.00 -- 41.8 49.0
11/21/2019 08:00 571.22 0.00 -- 41.1 49.0
11/21/2019 07:00 571.22 0.00 -- 39.6 52.0
11/21/2019 06:00 571.21 0.00 -- 38.2 51.0
11/21/2019 05:00 571.23 0.00 -- 36.4 55.0
11/21/2019 04:00 571.21 0.00 -- 32.7 57.0
11/21/2019 03:00 571.22 0.00 -- 31.4 57.0
11/21/2019 02:00 571.24 0.00 -- 30.3 56.0
11/21/2019 01:00 571.22 0.00 -- 31.3 56.0
11/21/2019 00:00 571.23 0.00 0.00 32.7 56.0
11/20/2019 23:00 571.24 0.00 -- 31.7 56.0
11/20/2019 22:00 571.23 0.00 -- 33.1 55.0
11/20/2019 21:00 571.23 0.00 -- 33.7 54.0
11/20/2019 20:00 571.24 0.00 -- 34.3 54.0
11/20/2019 19:00 571.24 0.00 -- 33.9 56.0
11/20/2019 18:00 571.24 0.01 -- 35.4 56.0
11/20/2019 17:00 571.24 0.00 -- 35.8 58.0
11/20/2019 16:00 571.24 0.00 -- 35.7 61.0
11/20/2019 15:00 571.24 0.00 -- 36.4 60.0
11/20/2019 14:00 571.22 0.00 -- 36.2 63.0
11/20/2019 13:00 571.23 0.00 -- 35.8 63.0
11/20/2019 12:00 571.23 0.01 -- 35.6 64.0
11/20/2019 11:00 571.24 0.01 -- 35.5 65.0
11/20/2019 10:00 571.23 0.02 -- 35.8 67.0
11/20/2019 09:00 571.23 0.01 -- 35.5 66.0
11/20/2019 08:00 571.24 0.00 -- 35.2 67.0
11/20/2019 07:00 571.25 0.01 -- 34.7 69.0
11/20/2019 06:00 571.23 0.00 -- 34.3 70.0
11/20/2019 05:00 571.24 0.00 -- 34.2 71.0
11/20/2019 04:00 571.23 0.00 -- 34.1 71.0
11/20/2019 03:00 571.24 0.00 -- 34.0 72.0
11/20/2019 02:00 571.24 0.00 -- 34.3 73.0
11/20/2019 01:00 571.24 0.00 -- 34.7 74.0
11/20/2019 00:00 571.24 0.00 0.07 34.7 75.0
11/19/2019 23:00 571.23 0.00 -- 34.4 75.0
11/19/2019 22:00 571.25 0.00 -- 34.1 75.0
11/19/2019 21:00 571.24 0.00 -- 34.6 76.0
11/19/2019 20:00 571.25 0.00 -- 34.7 76.0
11/19/2019 19:00 571.25 0.01 -- 35.1 79.0
11/19/2019 18:00 571.24 0.00 -- 35.1 79.0
11/19/2019 17:00 571.24 0.00 -- 35.2 79.0
11/19/2019 16:00 571.23 0.00 -- 35.3 79.0
11/19/2019 15:00 571.23 0.00 -- 35.3 79.0
11/19/2019 14:00 571.24 0.00 -- 35.8 79.0
11/19/2019 13:00 571.25 0.01 -- 36.0 81.0
11/19/2019 12:00 571.25 0.00 -- 36.2 82.0
11/19/2019 11:00 571.24 0.00 -- 36.5 82.0
11/19/2019 10:00 571.25 0.00 -- 37.0 81.0
11/19/2019 09:00 571.25 0.01 -- 36.4 86.0
11/19/2019 08:00 571.26 0.07 -- 35.8 88.0
11/19/2019 07:00 571.24 0.09 -- 34.8 87.0
11/19/2019 06:00 571.23 0.04 -- 34.6 90.0
11/19/2019 05:00 571.24 0.02 -- 34.5 90.0
11/19/2019 04:00 571.24 0.01 -- 34.7 90.0
11/19/2019 03:00 571.23 0.00 -- 34.5 89.0
11/19/2019 02:00 571.22 0.01 -- 34.7 88.0
11/19/2019 01:00 571.23 0.00 -- 35.0 90.0
11/19/2019 00:00 571.23 0.01 0.27 35.5 87.0
11/18/2019 23:00 571.22 0.00 -- 36.2 89.0
11/18/2019 22:00 571.23 0.00 -- 36.0 88.0
11/18/2019 21:00 571.22 0.00 -- 36.7 88.0
11/18/2019 20:00 571.23 0.00 -- 37.4 93.0
11/18/2019 19:00 571.23 0.02 -- 37.4 92.0
11/18/2019 18:00 571.22 0.00 -- 37.9 94.0
11/18/2019 17:00 571.23 0.01 -- 37.7 94.0
11/18/2019 16:00 571.24 0.01 -- 37.5 98.0
11/18/2019 15:00 571.23 0.00 -- 38.1 96.0
11/18/2019 14:00 571.23 0.00 -- 38.4 96.0
11/18/2019 13:00 571.24 0.00 -- 37.4 92.0
11/18/2019 12:00 571.24 0.00 -- 35.9 84.0
11/18/2019 11:00 571.23 0.00 -- 35.9 88.0
11/18/2019 10:00 571.25 0.00 -- 35.3 80.0
11/18/2019 09:00 571.22 0.00 -- 34.4 68.0
11/18/2019 08:00 571.12 0.00 -- 33.7 100.0
11/18/2019 07:00 571.15 0.00 -- 33.3 100.0
11/18/2019 06:00 571.14 0.00 -- 33.2 100.0
11/18/2019 05:00 571.10 0.00 -- 31.2 100.0
11/18/2019 04:00 571.12 0.00 -- 30.9 100.0
11/18/2019 03:00 571.16 0.00 -- 30.4 100.0
11/18/2019 02:00 571.13 0.00 -- 30.0 100.0
11/18/2019 01:00 571.16 0.00 -- 29.8 100.0
11/18/2019 00:00 571.15 0.00 0.05 29.8 100.0
11/17/2019 23:00 571.16 0.00 -- 30.1 100.0
11/17/2019 22:00 571.15 0.00 -- 29.9 100.0
11/17/2019 21:00 571.17 0.00 -- 29.7 100.0
11/17/2019 20:00 571.16 0.00 -- 30.0 100.0
11/17/2019 19:00 571.20 0.00 -- 30.0 100.0
11/17/2019 18:00 571.20 0.00 -- 30.0 100.0
11/17/2019 17:00 571.19 0.00 -- 30.1 100.0
11/17/2019 16:00 571.20 0.00 -- 30.4 100.0
11/17/2019 15:00 571.18 0.00 -- 30.4 100.0
11/17/2019 14:00 571.19 0.00 -- 30.7 100.0
11/17/2019 13:00 571.17 0.00 -- 31.3 100.0
11/17/2019 12:00 571.21 0.00 -- 31.9 100.0
11/17/2019 11:00 571.22 0.00 -- 32.7 100.0
11/17/2019 10:00 571.22 0.00 -- 32.4 100.0
11/17/2019 09:00 571.24 0.00 -- 31.9 100.0
11/17/2019 08:00 571.19 0.00 -- 30.5 100.0
11/17/2019 07:00 571.24 0.00 -- 28.7 100.0
11/17/2019 06:00 571.20 0.00 -- 26.6 100.0
11/17/2019 05:00 571.21 0.00 -- 23.8 100.0
11/17/2019 04:00 571.22 0.00 -- 19.8 100.0
11/17/2019 03:00 571.24 0.00 -- 16.7 100.0
11/17/2019 02:00 571.24 0.00 -- 15.7 100.0
11/17/2019 01:00 571.21 0.00 -- 14.9 100.0
11/17/2019 00:00 571.24 0.00 0.00 16.0 100.0
11/16/2019 23:00 571.24 0.00 -- 16.8 100.0
11/16/2019 22:00 571.25 0.00 -- 17.1 100.0
11/16/2019 21:00 571.26 0.00 -- 17.7 100.0
11/16/2019 20:00 571.24 0.00 -- 18.2 100.0
11/16/2019 19:00 571.24 0.00 -- 18.5 100.0
11/16/2019 18:00 571.27 0.00 -- 21.0 100.0
11/16/2019 17:00 571.28 0.00 -- 22.4 100.0
11/16/2019 16:00 571.29 0.00 -- 23.6 100.0
11/16/2019 15:00 571.29 0.00 -- 24.2 100.0
11/16/2019 14:00 571.26 0.00 -- 24.2 100.0
11/16/2019 13:00 571.25 0.00 -- 24.9 100.0
11/16/2019 12:00 571.24 0.00 -- 27.7 100.0
11/16/2019 11:00 571.24 0.00 -- 29.3 100.0
11/16/2019 10:00 571.26 0.00 -- 29.6 100.0
11/16/2019 09:00 571.30 0.00 -- 29.4 100.0
11/16/2019 08:00 571.28 0.00 -- 28.7 100.0
11/16/2019 07:00 571.30 0.00 -- 27.7 100.0
11/16/2019 06:00 571.30 0.00 -- 25.3 100.0
11/16/2019 05:00 571.29 0.00 -- 22.6 100.0
11/16/2019 04:00 571.29 0.00 -- 20.5 100.0
11/16/2019 03:00 571.29 0.00 -- 19.6 100.0
11/16/2019 02:00 571.32 0.00 -- 19.7 100.0
11/16/2019 01:00 571.31 0.00 -- 20.6 100.0
11/16/2019 00:00 571.34 0.00 0.00 21.7 100.0
11/15/2019 23:00 571.34 0.00 -- 23.6 100.0
11/15/2019 22:00 571.31 0.00 -- 25.4 100.0
11/15/2019 21:00 571.35 0.00 -- 27.4 100.0
11/15/2019 20:00 571.30 0.00 -- 30.0 100.0
11/15/2019 19:00 571.28 0.00 -- 33.1 100.0
11/15/2019 18:00 571.34 0.00 -- 34.9 100.0
11/15/2019 17:00 571.31 0.00 -- 38.5 51.0
11/15/2019 16:00 571.35 0.00 -- 39.2 53.0
11/15/2019 15:00 571.35 0.00 -- 39.7 46.0
11/15/2019 14:00 571.36 0.00 -- 40.5 45.0
11/15/2019 13:00 571.37 0.00 -- 41.6 46.0
11/15/2019 12:00 571.36 0.00 -- 42.7 45.0
11/15/2019 11:00 571.37 0.00 -- 44.1 45.0
11/15/2019 10:00 571.36 0.00 -- 44.5 44.0
11/15/2019 09:00 571.39 0.00 -- 43.7 45.0
11/15/2019 08:00 571.40 0.00 -- 41.6 45.0
11/15/2019 07:00 571.37 0.00 -- 40.0 46.0
11/15/2019 06:00 571.37 0.00 -- 38.9 41.0
11/15/2019 05:00 571.39 0.00 -- 37.0 47.0
11/15/2019 04:00 571.38 0.00 -- 34.0 48.0
11/15/2019 03:00 571.41 0.00 -- 30.8 48.0
11/15/2019 02:00 571.34 0.00 -- 29.6 48.0
11/15/2019 01:00 571.42 0.00 -- 30.2 48.0
11/15/2019 00:00 571.38 0.00 0.00 27.7 50.0
11/14/2019 23:00 571.41 0.00 -- 26.6 50.0
11/14/2019 22:00 571.38 0.00 -- 26.6 52.0
11/14/2019 21:00 571.42 0.00 -- 26.4 53.0
11/14/2019 20:00 571.42 0.00 -- 26.1 54.0
11/14/2019 19:00 571.43 0.00 -- 26.5 55.0
11/14/2019 18:00 571.44 0.00 -- 26.1 57.0
11/14/2019 17:00 571.41 0.00 -- 27.0 57.0
11/14/2019 16:00 571.43 0.00 -- 27.6 60.0
11/14/2019 15:00 571.47 0.00 -- 27.8 62.0
11/14/2019 14:00 571.45 0.00 -- 27.1 64.0
11/14/2019 13:00 571.42 0.00 -- 27.9 65.0
11/14/2019 12:00 571.43 0.00 -- 28.1 65.0
11/14/2019 11:00 571.43 0.00 -- 28.3 66.0
11/14/2019 10:00 571.43 0.00 -- 28.4 65.0
11/14/2019 09:00 571.43 0.00 -- 27.9 66.0
11/14/2019 08:00 571.45 0.00 -- 26.8 66.0
11/14/2019 07:00 571.47 0.00 -- 26.7 68.0
11/14/2019 06:00 571.45 0.00 -- 24.4 70.0
11/14/2019 05:00 571.44 0.00 -- 21.6 75.0
11/14/2019 04:00 571.47 0.00 -- 19.2 74.0
11/14/2019 03:00 571.48 0.00 -- 15.5 78.0
11/14/2019 02:00 571.48 0.00 -- 13.1 79.0
11/14/2019 01:00 571.49 0.00 -- 12.9 82.0
11/14/2019 00:00 571.49 0.00 0.00 12.4 83.0
11/13/2019 23:00 571.49 0.00 -- 12.0 83.0
11/13/2019 22:00 571.52 0.00 -- 12.3 85.0
11/13/2019 21:00 571.52 0.00 -- 12.2 86.0
11/13/2019 20:00 571.53 0.00 -- 12.4 86.0
11/13/2019 19:00 571.50 0.00 -- 13.3 88.0
11/13/2019 18:00 571.49 0.00 -- 13.9 94.0
11/13/2019 17:00 571.52 0.00 -- 14.2 98.0
11/13/2019 16:00 571.48 0.00 -- 17.4 100.0
11/13/2019 15:00 571.50 0.00 -- 18.7 100.0
11/13/2019 14:00 571.52 0.00 -- 19.2 100.0
11/13/2019 13:00 571.54 0.00 -- 19.6 100.0
11/13/2019 12:00 571.54 0.00 -- 20.3 100.0
11/13/2019 11:00 571.50 0.00 -- 20.6 99.0
11/13/2019 10:00 571.55 0.00 -- 20.9 100.0
11/13/2019 09:00 571.53 0.00 -- 20.8 95.0
11/13/2019 08:00 571.51 0.00 -- 20.1 100.0
11/13/2019 07:00 571.54 0.00 -- 18.8 100.0
11/13/2019 06:00 571.60 0.00 -- 17.2 96.0
11/13/2019 05:00 571.57 0.00 -- 15.4 100.0
11/13/2019 04:00 571.55 0.00 -- 14.6 100.0
11/13/2019 03:00 571.55 0.00 -- 13.5 100.0
11/13/2019 02:00 571.56 0.00 -- 13.8 100.0
11/13/2019 01:00 571.55 0.00 -- 13.4 100.0
11/13/2019 00:00 571.57 0.00 0.00 14.1 100.0
11/12/2019 23:00 571.60 0.00 -- 14.6 100.0
11/12/2019 22:00 571.59 0.00 -- 14.3 90.0
11/12/2019 21:00 571.57 0.00 -- 15.3 76.0
11/12/2019 20:00 571.52 0.00 -- 15.9 67.0
11/12/2019 19:00 571.65 0.00 -- 17.4 60.0
11/12/2019 18:00 571.54 0.00 -- 18.1 52.0
11/12/2019 17:00 571.61 0.00 -- 19.4 40.0
11/12/2019 16:00 571.64 0.00 -- 21.2 35.0
11/12/2019 15:00 571.60 0.00 -- 23.1 31.0
11/12/2019 14:00 571.63 0.00 -- 24.4 29.0
11/12/2019 13:00 571.65 0.00 -- 25.3 29.0
11/12/2019 12:00 571.58 0.00 -- 26.1 29.0
11/12/2019 11:00 571.65 0.00 -- 26.9 29.0
11/12/2019 10:00 571.65 0.00 -- 27.5 31.0
11/12/2019 09:00 571.62 0.00 -- 28.5 30.0
11/12/2019 08:00 571.63 0.01 -- 30.9 30.0
11/12/2019 07:00 571.67 0.07 -- 34.1 30.0
11/12/2019 06:00 571.67 0.00 -- 32.4 30.0
11/12/2019 05:00 571.66 0.00 -- 28.5 29.0
11/12/2019 04:00 571.66 0.00 -- 28.4 29.0
11/12/2019 03:00 571.70 0.00 -- 28.2 29.0
11/12/2019 02:00 571.71 0.00 -- 28.0 29.0
11/12/2019 01:00 571.67 0.00 -- 28.1 29.0
11/12/2019 00:00 571.70 0.00 0.08 28.2 28.0
11/11/2019 23:00 571.60 0.00 -- 28.0 28.0
11/11/2019 22:00 571.61 0.00 -- 28.3 28.0
11/11/2019 21:00 571.70 0.00 -- 28.4 28.0
11/11/2019 20:00 571.71 0.00 -- 28.6 28.0
11/11/2019 19:00 571.68 0.00 -- 28.7 28.0
11/11/2019 18:00 571.70 0.00 -- 28.9 28.0
11/11/2019 17:00 571.71 0.00 -- 29.9 28.0
11/11/2019 16:00 571.72 0.00 -- 30.2 28.0
11/11/2019 15:00 571.69 0.02 -- 31.4 28.0
11/11/2019 14:00 571.67 0.03 -- 32.1 28.0
11/11/2019 13:00 571.69 0.04 -- 32.4 28.0
11/11/2019 12:00 571.70 0.03 -- 33.4 28.0
11/11/2019 11:00 571.70 0.01 -- 35.0 28.0
11/11/2019 10:00 571.71 0.00 -- 36.4 27.0
11/11/2019 09:00 571.73 0.00 -- 37.1 28.0
11/11/2019 08:00 571.71 0.00 -- 37.3 27.0
11/11/2019 07:00 571.73 0.00 -- 37.9 27.0
11/11/2019 06:00 571.73 0.00 -- 40.7 28.0
11/11/2019 05:00 571.73 0.00 -- 41.7 28.0
11/11/2019 04:00 571.73 0.00 -- 39.6 28.0
11/11/2019 03:00 571.73 0.00 -- 38.4 28.0
11/11/2019 02:00 571.77 0.00 -- 38.4 28.0
11/11/2019 01:00 571.74 0.00 -- 38.3 28.0
11/11/2019 00:00 571.75 0.00 0.13 37.9 28.0
11/10/2019 23:00 571.77 0.00 -- 38.1 28.0
11/10/2019 22:00 571.75 0.00 -- 39.2 28.0
11/10/2019 21:00 571.77 0.00 -- 39.9 28.0
11/10/2019 20:00 571.77 0.00 -- 38.6 28.0
11/10/2019 19:00 571.78 0.00 -- 39.7 28.0
11/10/2019 18:00 571.78 0.00 -- 39.0 28.0
11/10/2019 17:00 571.76 0.00 -- 40.9 28.0
11/10/2019 16:00 571.77 0.00 -- 41.1 28.0
11/10/2019 15:00 571.78 0.00 -- 42.8 29.0
11/10/2019 14:00 571.82 0.00 -- 43.9 29.0
11/10/2019 13:00 571.75 0.00 -- 42.2 29.0
11/10/2019 12:00 571.83 0.00 -- 41.2 29.0
11/10/2019 11:00 571.80 0.00 -- 43.2 29.0
11/10/2019 10:00 571.79 0.00 -- 42.8 29.0
11/10/2019 09:00 571.81 0.00 -- 42.3 29.0
11/10/2019 08:00 571.84 0.00 -- 42.1 29.0
11/10/2019 07:00 571.81 0.00 -- 39.7 29.0
11/10/2019 06:00 571.82 0.00 -- 40.3 29.0
11/10/2019 05:00 571.82 0.00 -- 37.6 29.0
11/10/2019 04:00 571.81 0.00 -- 34.7 28.0
11/10/2019 03:00 571.83 0.00 -- 31.9 28.0
11/10/2019 02:00 571.84 0.00 -- 30.8 28.0
11/10/2019 01:00 571.82 0.00 -- 30.1 28.0
11/10/2019 00:00 571.83 0.00 0.00 30.1 28.0
11/09/2019 23:00 571.86 0.00 -- 30.0 29.0
11/09/2019 22:00 571.86 0.00 -- 29.3 28.0
11/09/2019 21:00 571.84 0.00 -- 29.1 28.0
11/09/2019 20:00 571.84 0.00 -- 29.4 28.0
11/09/2019 19:00 571.87 0.00 -- 28.9 28.0
11/09/2019 18:00 571.84 0.00 -- 29.8 29.0
11/09/2019 17:00 571.85 0.00 -- 29.2 29.0
11/09/2019 16:00 571.88 0.00 -- 28.4 29.0
11/09/2019 15:00 571.90 0.00 -- 29.0 28.0
11/09/2019 14:00 571.88 0.00 -- 30.6 28.0
11/09/2019 13:00 571.90 0.00 -- 30.4 28.0
11/09/2019 12:00 571.90 0.00 -- 32.5 28.0
11/09/2019 11:00 571.93 0.00 -- 34.8 29.0
11/09/2019 10:00 571.89 0.00 -- 36.1 29.0
11/09/2019 09:00 571.91 0.00 -- 35.8 29.0
11/09/2019 08:00 571.91 0.00 -- 34.8 29.0
11/09/2019 07:00 571.92 0.00 -- 34.5 29.0
11/09/2019 06:00 571.93 0.00 -- 32.8 30.0
11/09/2019 05:00 571.95 0.00 -- 29.7 29.0
11/09/2019 04:00 571.91 0.00 -- 26.6 29.0
11/09/2019 03:00 571.94 0.00 -- 21.3 31.0
11/09/2019 02:00 571.95 0.00 -- 20.8 31.0
11/09/2019 01:00 571.96 0.00 -- 21.7 31.0
11/09/2019 00:00 571.93 0.00 0.00 21.8 31.0
11/08/2019 23:00 571.95 0.00 -- 22.1 32.0
11/08/2019 22:00 571.97 0.00 -- 23.3 32.0
11/08/2019 21:00 571.99 0.00 -- 26.1 33.0
11/08/2019 20:00 571.98 0.00 -- 24.9 34.0
11/08/2019 19:00 571.92 0.00 -- 27.1 35.0
11/08/2019 18:00 572.00 0.00 -- 23.7 37.0
11/08/2019 17:00 571.98 0.00 -- 27.5 38.0
11/08/2019 16:00 571.97 0.00 -- 27.4 43.0
11/08/2019 15:00 571.97 0.00 -- 27.2 46.0
11/08/2019 14:00 572.01 0.00 -- 27.7 48.0
11/08/2019 13:00 571.98 0.00 -- 27.1 50.0
11/08/2019 12:00 571.98 0.00 -- 27.7 55.0
11/08/2019 11:00 571.98 0.00 -- 29.1 56.0
11/08/2019 10:00 572.01 0.00 -- 29.8 51.0
11/08/2019 09:00 572.03 0.00 -- 29.1 47.0
11/08/2019 08:00 571.99 0.00 -- 29.4 48.0
11/08/2019 07:00 572.04 0.00 -- 28.6 35.0
11/08/2019 06:00 572.04 0.00 -- 30.2 33.0
11/08/2019 05:00 572.04 0.00 -- 29.0 31.0
11/08/2019 04:00 572.06 0.00 -- 28.1 31.0
11/08/2019 03:00 572.06 0.00 -- 28.3 30.0
11/08/2019 02:00 572.08 0.00 -- 28.2 30.0
11/08/2019 01:00 572.04 0.00 -- 28.7 29.0
11/08/2019 00:00 572.07 0.00 0.00 28.7 29.0
11/07/2019 23:00 572.08 0.00 -- 30.9 29.0
11/07/2019 22:00 572.07 0.00 -- 32.0 29.0
11/07/2019 21:00 572.10 0.00 -- 33.1 28.0
11/07/2019 20:00 572.06 0.00 -- 34.5 28.0
11/07/2019 19:00 572.07 0.00 -- 34.7 28.0
11/07/2019 18:00 572.07 0.03 -- 34.4 28.0
11/07/2019 17:00 572.13 0.05 -- 36.5 28.0
11/07/2019 16:00 572.08 0.03 -- 38.2 27.0
11/07/2019 15:00 572.09 0.01 -- 39.2 28.0
11/07/2019 14:00 572.07 0.03 -- 40.2 28.0
11/07/2019 13:00 572.11 0.05 -- 40.4 28.0
11/07/2019 12:00 572.14 0.05 -- 40.4 29.0
11/07/2019 11:00 572.08 0.03 -- 40.9 29.0
11/07/2019 10:00 572.10 0.01 -- 40.5 31.0
11/07/2019 09:00 572.12 0.01 -- 41.0 31.0
11/07/2019 08:00 572.11 0.00 -- 41.9 31.0
11/07/2019 07:00 572.13 0.00 -- 43.2 32.0
11/07/2019 06:00 572.11 0.00 -- 43.6 33.0
11/07/2019 05:00 572.10 0.00 -- 42.6 33.0
11/07/2019 04:00 572.16 0.00 -- 41.7 32.0
11/07/2019 03:00 572.18 0.00 -- 40.3 33.0
11/07/2019 02:00 572.17 0.00 -- 37.6 34.0
11/07/2019 01:00 572.20 0.00 -- 36.2 35.0
11/07/2019 00:00 572.19 0.00 0.30 36.3 36.0
11/06/2019 23:00 572.22 0.00 -- 35.4 38.0
11/06/2019 22:00 572.24 0.00 -- 35.1 37.0
11/06/2019 21:00 572.22 0.00 -- 35.3 37.0
11/06/2019 20:00 572.24 0.00 -- 36.4 38.0
11/06/2019 19:00 572.21 0.00 -- 38.1 38.0
11/06/2019 18:00 572.25 0.00 -- 38.4 38.0
11/06/2019 17:00 572.23 0.00 -- 35.9 39.0
11/06/2019 16:00 572.22 0.00 -- 35.4 40.0
11/06/2019 15:00 572.25 0.00 -- 36.7 40.0
11/06/2019 14:00 572.26 0.00 -- 39.4 41.0
11/06/2019 13:00 572.25 0.00 -- 40.9 41.0
11/06/2019 12:00 572.27 0.00 -- 45.3 44.0
11/06/2019 11:00 572.24 0.00 -- 45.8 48.0
11/06/2019 10:00 572.30 0.00 -- 45.5 47.0
11/06/2019 09:00 572.26 0.00 -- 45.6 46.0
11/06/2019 08:00 572.31 0.00 -- 45.3 39.0
11/06/2019 07:00 572.22 0.00 -- 44.6 37.0
11/06/2019 06:00 572.25 0.00 -- 43.8 34.0
11/06/2019 05:00 572.26 0.00 -- 43.2 32.0
11/06/2019 04:00 572.27 0.00 -- 41.5 29.0
11/06/2019 03:00 572.28 0.00 -- 35.1 29.0
11/06/2019 02:00 572.28 0.00 -- 34.2 29.0
11/06/2019 01:00 572.25 0.00 -- 35.1 29.0
11/06/2019 00:00 572.31 0.00 0.00 35.7 29.0
11/05/2019 23:00 572.30 0.00 -- 37.7 29.0
11/05/2019 22:00 572.32 0.00 -- 42.1 28.0
11/05/2019 21:00 572.33 0.00 -- 44.0 28.0
11/05/2019 20:00 572.31 0.00 -- 45.7 28.0
11/05/2019 19:00 572.33 0.00 -- 47.1 28.0
11/05/2019 18:00 572.32 0.00 -- 48.7 28.0
11/05/2019 17:00 572.35 0.00 -- 49.1 28.0
11/05/2019 16:00 572.32 0.00 -- 47.6 28.0
11/05/2019 15:00 572.34 0.00 -- 48.4 28.0
11/05/2019 14:00 572.34 0.00 -- 48.7 28.0
11/05/2019 13:00 572.33 0.00 -- 49.3 29.0
11/05/2019 12:00 572.34 0.00 -- 49.4 29.0
11/05/2019 11:00 572.33 0.00 -- 50.5 29.0
11/05/2019 10:00 572.33 0.00 -- 50.3 29.0
11/05/2019 09:00 572.37 0.01 -- 49.7 29.0
11/05/2019 08:00 572.36 0.00 -- 48.8 29.0
11/05/2019 07:00 572.35 0.00 -- 49.9 29.0
11/05/2019 06:00 572.35 0.00 -- 48.5 29.0
11/05/2019 05:00 572.37 0.00 -- 46.0 29.0
11/05/2019 04:00 572.37 0.00 -- 44.6 29.0
11/05/2019 03:00 572.37 0.00 -- 41.4 28.0
11/05/2019 02:00 572.37 0.00 -- 40.6 28.0
11/05/2019 01:00 572.37 0.00 -- 39.3 29.0
11/05/2019 00:00 572.41 0.00 0.01 41.0 28.0
11/04/2019 23:00 572.36 0.00 -- 41.3 28.0
11/04/2019 22:00 572.42 0.00 -- 42.0 28.0
11/04/2019 21:00 572.42 0.00 -- 42.0 29.0
11/04/2019 20:00 572.38 0.00 -- 41.5 29.0
11/04/2019 19:00 572.40 0.00 -- 41.3 29.0
11/04/2019 18:00 572.41 0.00 -- 42.1 30.0
11/04/2019 17:00 572.42 0.00 -- 42.6 30.0
11/04/2019 16:00 572.42 0.00 -- 42.9 31.0
11/04/2019 15:00 572.40 0.00 -- 43.7 31.0
11/04/2019 14:00 572.44 0.00 -- 43.1 31.0
11/04/2019 13:00 572.43 0.00 -- 40.3 30.0
11/04/2019 12:00 572.44 0.00 -- 44.1 31.0
11/04/2019 11:00 572.45 0.00 -- 47.7 31.0
11/04/2019 10:00 572.42 0.00 -- 47.5 31.0
11/04/2019 09:00 572.44 0.00 -- 47.1 31.0
11/04/2019 08:00 572.44 0.00 -- 46.6 30.0
11/04/2019 07:00 572.43 0.00 -- 46.0 30.0
11/04/2019 06:00 572.47 0.00 -- 43.8 29.0
11/04/2019 05:00 572.46 0.00 -- 41.2 30.0
11/04/2019 04:00 572.45 0.00 -- 38.2 30.0
11/04/2019 03:00 572.46 0.00 -- 33.1 30.0
11/04/2019 02:00 572.47 0.00 -- 32.0 30.0
11/04/2019 01:00 572.47 0.00 -- 32.2 31.0
11/04/2019 00:00 572.49 0.00 0.00 31.9 31.0
11/03/2019 23:00 572.48 0.00 -- 31.7 31.0
11/03/2019 22:00 572.48 0.00 -- 32.5 31.0
11/03/2019 21:00 572.50 0.00 -- 34.2 31.0
11/03/2019 20:00 572.51 0.00 -- 37.7 31.0
11/03/2019 19:00 572.53 0.00 -- 38.1 31.0
11/03/2019 18:00 572.52 0.00 -- 37.7 32.0
11/03/2019 17:00 572.51 0.00 -- 40.4 31.0
11/03/2019 16:00 572.51 0.00 -- 39.6 32.0
11/03/2019 15:00 572.52 0.00 -- 38.3 32.0
11/03/2019 14:00 572.54 0.00 -- 39.4 32.0
11/03/2019 13:00 572.52 0.00 -- 44.8 32.0
11/03/2019 12:00 572.55 0.00 -- 46.7 32.0
11/03/2019 11:00 572.53 0.00 -- 47.7 32.0
11/03/2019 10:00 572.56 0.00 -- 48.6 32.0
11/03/2019 09:00 572.53 0.00 -- 48.2 31.0
11/03/2019 08:00 572.56 0.00 -- 47.0 30.0
11/03/2019 07:00 572.54 0.00 -- 46.4 30.0
11/03/2019 06:00 572.54 0.00 -- 44.9 30.0
11/03/2019 05:00 572.55 0.00 -- 41.2 31.0
11/03/2019 04:00 572.57 0.00 -- 35.1 30.0
11/03/2019 03:00 572.56 0.00 -- 33.8 30.0
11/03/2019 02:00 572.57 0.00 -- 31.0 31.0
11/03/2019 01:00 572.59 0.00 -- 30.5 31.0
11/03/2019 00:00 572.56 0.00 0.00 31.8 31.0
11/02/2019 23:00 572.57 0.00 -- 30.5 32.0
11/02/2019 22:00 572.59 0.00 -- 31.8 33.0
11/02/2019 21:00 572.61 0.00 -- 32.3 34.0
11/02/2019 20:00 572.61 0.00 -- 33.7 33.0
11/02/2019 19:00 572.59 0.00 -- 33.0 37.0
11/02/2019 18:00 572.62 0.00 -- 33.4 39.0
11/02/2019 17:00 572.62 0.00 -- 34.3 40.0
11/02/2019 16:00 572.62 0.00 -- 35.9 40.0
11/02/2019 15:00 572.62 0.00 -- 37.2 41.0
11/02/2019 14:00 572.64 0.00 -- 38.9 42.0
11/02/2019 13:00 572.63 0.00 -- 41.7 45.0
11/02/2019 12:00 572.64 0.00 -- 43.5 46.0
11/02/2019 11:00 572.67 0.00 -- 45.5 46.0
11/02/2019 10:00 572.67 0.00 -- 45.4 47.0
11/02/2019 09:00 572.67 0.00 -- 44.6 46.0
11/02/2019 08:00 572.64 0.00 -- 43.6 46.0
11/02/2019 07:00 572.66 0.00 -- 42.2 48.0
11/02/2019 06:00 572.63 0.00 -- 38.8 47.0
11/02/2019 05:00 572.66 0.00 -- 36.9 48.0
11/02/2019 04:00 572.71 0.00 -- 30.9 52.0
11/02/2019 03:00 572.71 0.00 -- 29.1 57.0
11/02/2019 02:00 572.71 0.00 -- 29.6 61.0
11/02/2019 01:00 572.72 0.00 -- 30.4 64.0
11/02/2019 00:00 572.69 0.00 0.00 32.4 66.0
11/01/2019 23:00 572.67 0.00 -- 36.4 69.0
11/01/2019 22:00 572.70 0.00 -- 37.2 74.0
11/01/2019 21:00 572.73 0.00 -- 38.7 82.0
11/01/2019 20:00 572.72 0.00 -- 39.9 95.0
11/01/2019 19:00 572.69 0.00 -- 40.9 98.0
11/01/2019 18:00 572.71 0.00 -- 41.8 98.0
11/01/2019 17:00 572.73 0.00 -- 42.8 98.0
11/01/2019 16:00 572.74 0.00 -- 43.5 83.0
11/01/2019 15:00 572.74 0.00 -- 44.3 76.0
11/01/2019 14:00 572.72 0.00 -- 45.4 70.0
11/01/2019 13:00 572.78 0.00 -- 47.5 71.0
11/01/2019 12:00 572.79 0.00 -- 48.8 60.0
11/01/2019 11:00 572.75 0.00 -- 50.1 38.0
11/01/2019 10:00 572.67 0.00 -- 50.3 37.0
11/01/2019 09:00 572.76 0.00 -- 50.2 37.0
11/01/2019 08:00 572.83 0.00 -- 50.1 37.0
11/01/2019 07:00 572.78 0.00 -- 49.9 31.0
11/01/2019 06:00 572.75 0.00 -- 48.8 30.0
11/01/2019 05:00 572.80 0.00 -- 47.8 29.0
11/01/2019 04:00 572.77 0.00 -- 47.7 26.0
11/01/2019 03:00 572.79 0.00 -- 51.1 26.0
11/01/2019 02:00 572.77 0.00 -- 54.3 25.0
11/01/2019 01:00 572.76 0.02 -- 57.8 25.0
11/01/2019 00:00 572.90 0.04 0.02 63.8 25.0
10/31/2019 23:00 572.83 0.00 -- 67.6 26.0
10/31/2019 22:00 572.78 0.01 -- 67.6 26.0
10/31/2019 21:00 572.82 0.01 -- 67.6 26.0
10/31/2019 20:00 572.81 0.00 -- 67.4 26.0
10/31/2019 19:00 572.80 0.01 -- 67.1 27.0
10/31/2019 18:00 572.80 0.01 -- 67.0 27.0
10/31/2019 17:00 572.84 0.00 -- 66.9 26.0
10/31/2019 16:00 572.79 0.00 -- 67.0 26.0
10/31/2019 15:00 572.85 0.00 -- 66.7 26.0
10/31/2019 14:00 572.85 0.00 -- 67.3 25.0
10/31/2019 13:00 572.85 0.00 -- 66.5 26.0
10/31/2019 12:00 572.82 0.03 -- 65.9 26.0
10/31/2019 11:00 572.84 0.03 -- 64.5 25.0
10/31/2019 10:00 572.88 0.03 -- 63.3 24.0
10/31/2019 09:00 572.87 0.00 -- 62.1 25.0
10/31/2019 08:00 572.87 0.01 -- 61.5 24.0
10/31/2019 07:00 572.79 0.00 -- 60.4 24.0
10/31/2019 06:00 572.87 0.02 -- 59.3 24.0
10/31/2019 05:00 572.89 0.04 -- 58.5 24.0
10/31/2019 04:00 572.88 0.07 -- 57.4 24.0
10/31/2019 03:00 572.87 0.05 -- 55.6 24.0
10/31/2019 02:00 572.88 0.02 -- 54.6 23.0
10/31/2019 01:00 572.87 0.01 -- 54.5 23.0
10/31/2019 00:00 572.88 0.01 0.39 54.6 23.0
10/30/2019 23:00 572.85 0.01 -- 54.7 23.0
10/30/2019 22:00 572.87 0.01 -- 54.8 23.0
10/30/2019 21:00 572.87 0.00 -- 55.0 23.0
10/30/2019 20:00 572.87 0.01 -- 55.1 23.0
10/30/2019 19:00 572.88 0.03 -- 55.3 23.0
10/30/2019 18:00 572.90 0.00 -- 55.3 23.0
10/30/2019 17:00 572.90 0.00 -- 55.1 23.0
10/30/2019 16:00 572.88 0.00 -- 55.3 23.0
10/30/2019 15:00 572.91 0.00 -- 56.0 23.0
10/30/2019 14:00 572.91 0.00 -- 56.9 23.0
10/30/2019 13:00 572.88 0.00 -- 58.2 24.0
10/30/2019 12:00 572.85 0.00 -- 59.5 24.0
10/30/2019 11:00 572.95 0.00 -- 60.5 25.0
10/30/2019 10:00 572.94 0.00 -- 60.3 25.0
10/30/2019 09:00 572.91 0.00 -- 59.6 25.0
10/30/2019 08:00 572.93 0.00 -- 58.3 26.0
10/30/2019 07:00 572.99 0.00 -- 55.5 24.0
10/30/2019 06:00 572.99 0.00 -- 53.7 24.0
10/30/2019 05:00 573.00 0.00 -- 52.1 23.0
10/30/2019 04:00 573.00 0.00 -- 50.7 23.0
10/30/2019 03:00 573.00 0.00 -- 49.9 23.0
10/30/2019 02:00 573.00 0.00 -- 49.9 23.0
10/30/2019 01:00 573.00 0.00 -- 49.5 24.0
10/30/2019 00:00 573.01 0.00 0.07 49.1 23.0
10/29/2019 23:00 573.01 0.00 -- 48.1 24.0
10/29/2019 22:00 573.01 0.00 -- 49.3 24.0
10/29/2019 21:00 573.02 0.00 -- 49.7 24.0
10/29/2019 20:00 573.01 0.00 -- 49.9 24.0
10/29/2019 19:00 573.01 0.00 -- 49.6 24.0
10/29/2019 18:00 573.02 0.00 -- 49.6 24.0
10/29/2019 17:00 573.03 0.00 -- 49.2 24.0
10/29/2019 16:00 573.00 0.00 -- 49.0 24.0
10/29/2019 15:00 573.03 0.00 -- 48.7 24.0
10/29/2019 14:00 573.03 0.01 -- 48.9 24.0
10/29/2019 13:00 573.01 0.00 -- 49.1 24.0
10/29/2019 12:00 573.03 0.00 -- 49.6 25.0
10/29/2019 11:00 573.03 0.01 -- 49.6 25.0
10/29/2019 10:00 573.03 0.00 -- 50.0 25.0
10/29/2019 09:00 573.04 0.00 -- 49.6 25.0
10/29/2019 08:00 573.04 0.00 -- 50.2 25.0
10/29/2019 07:00 573.04 0.00 -- 49.8 25.0
10/29/2019 06:00 573.06 0.00 -- 48.9 25.0
10/29/2019 05:00 573.05 0.00 -- 47.9 25.0
10/29/2019 04:00 573.06 0.00 -- 46.5 25.0
10/29/2019 03:00 573.05 0.00 -- 45.2 25.0
10/29/2019 02:00 573.06 0.00 -- 44.9 24.0
10/29/2019 01:00 573.06 0.00 -- 45.2 24.0
10/29/2019 00:00 573.06 0.00 0.02 45.6 24.0
10/28/2019 23:00 573.06 0.00 -- 45.5 24.0
10/28/2019 22:00 573.06 0.00 -- 45.4 24.0
10/28/2019 21:00 573.06 0.00 -- 45.6 24.0
10/28/2019 20:00 573.07 0.01 -- 45.6 24.0
10/28/2019 19:00 573.06 0.00 -- 45.6 24.0
10/28/2019 18:00 573.08 0.00 -- 45.9 24.0
10/28/2019 17:00 573.07 0.00 -- 46.3 24.0
10/28/2019 16:00 573.08 0.00 -- 46.8 25.0
10/28/2019 15:00 573.07 0.00 -- 47.1 24.0
10/28/2019 14:00 573.08 0.00 -- 47.5 24.0
10/28/2019 13:00 573.08 0.00 -- 48.4 24.0
10/28/2019 12:00 573.08 0.00 -- 49.0 24.0
10/28/2019 11:00 573.08 0.00 -- 49.5 25.0
10/28/2019 10:00 573.09 0.00 -- 49.4 25.0
10/28/2019 09:00 573.09 0.00 -- 48.7 24.0
10/28/2019 08:00 573.09 0.00 -- 48.2 25.0
10/28/2019 07:00 573.08 0.00 -- 47.1 24.0
10/28/2019 06:00 573.09 0.00 -- 46.9 25.0
10/28/2019 05:00 573.09 0.00 -- 44.8 25.0
10/28/2019 04:00 573.10 0.00 -- 44.7 25.0
10/28/2019 03:00 573.11 0.00 -- 44.3 25.0
10/28/2019 02:00 573.08 0.00 -- 44.3 24.0
10/28/2019 01:00 573.09 0.00 -- 44.5 24.0
10/28/2019 00:00 573.10 0.00 0.01 44.4 24.0
10/27/2019 23:00 573.11 0.00 -- 44.3 25.0
10/27/2019 22:00 573.12 0.00 -- 44.2 24.0
10/27/2019 21:00 573.10 0.01 -- 44.1 24.0
10/27/2019 20:00 573.12 0.00 -- 44.3 25.0
10/27/2019 19:00 573.11 0.03 -- 44.5 24.0
10/27/2019 18:00 573.09 0.06 -- 44.5 24.0
10/27/2019 17:00 573.09 0.00 -- 44.3 24.0
10/27/2019 16:00 573.11 0.04 -- 44.2 25.0
10/27/2019 15:00 573.09 0.07 -- 43.9 25.0
10/27/2019 14:00 573.09 0.12 -- 43.8 24.0
10/27/2019 13:00 573.05 0.03 -- 43.6 25.0
10/27/2019 12:00 573.05 0.16 -- 43.5 25.0
10/27/2019 11:00 573.08 0.14 -- 43.3 25.0
10/27/2019 10:00 573.08 0.19 -- 44.3 25.0
10/27/2019 09:00 573.10 0.13 -- 44.4 25.0
10/27/2019 08:00 573.02 0.16 -- 42.0 26.0
10/27/2019 07:00 573.02 0.09 -- 40.8 26.0
10/27/2019 06:00 573.06 0.05 -- 39.9 26.0
10/27/2019 05:00 573.05 0.05 -- 39.3 27.0
10/27/2019 04:00 573.04 0.02 -- 38.9 27.0
10/27/2019 03:00 573.05 0.00 -- 39.1 27.0
10/27/2019 02:00 573.03 0.00 -- 39.3 28.0
10/27/2019 01:00 573.02 0.00 -- 38.3 28.0
10/27/2019 00:00 573.04 0.00 1.35 37.4 28.0
10/26/2019 23:00 573.03 0.00 -- 37.2 28.0
10/26/2019 22:00 573.05 0.00 -- 37.4 29.0
10/26/2019 21:00 573.07 0.00 -- 37.0 30.0
10/26/2019 20:00 573.05 0.00 -- 37.0 29.0
10/26/2019 19:00 573.05 0.00 -- 37.3 29.0
10/26/2019 18:00 573.03 0.00 -- 38.1 30.0
10/26/2019 17:00 573.05 0.00 -- 38.5 29.0
10/26/2019 16:00 573.05 0.00 -- 40.3 29.0
10/26/2019 15:00 573.05 0.00 -- 42.8 28.0
10/26/2019 14:00 573.05 0.00 -- 45.4 28.0
10/26/2019 13:00 573.08 0.00 -- 49.8 28.0
10/26/2019 12:00 573.05 0.00 -- 52.9 27.0
10/26/2019 11:00 573.05 0.00 -- 53.8 28.0
10/26/2019 10:00 573.06 0.00 -- 53.5 28.0
10/26/2019 09:00 573.06 0.00 -- 53.0 27.0
10/26/2019 08:00 573.10 0.00 -- 52.4 27.0
10/26/2019 07:00 573.08 0.00 -- 51.1 27.0
10/26/2019 06:00 573.10 0.00 -- 49.4 26.0
10/26/2019 05:00 573.10 0.00 -- 47.8 26.0
10/26/2019 04:00 573.10 0.00 -- 44.8 26.0
10/26/2019 03:00 573.10 0.00 -- 44.1 26.0
10/26/2019 02:00 573.11 0.00 -- 45.7 26.0
10/26/2019 01:00 573.10 0.00 -- 45.2 26.0
10/26/2019 00:00 573.13 0.00 0.00 45.1 27.0
10/25/2019 23:00 573.13 0.00 -- 45.0 27.0
10/25/2019 22:00 573.11 0.01 -- 44.8 27.0
10/25/2019 21:00 573.10 0.02 -- 44.9 27.0
10/25/2019 20:00 573.11 0.01 -- 45.7 27.0
10/25/2019 19:00 573.11 0.01 -- 46.4 28.0
10/25/2019 18:00 573.13 0.02 -- 46.6 28.0
10/25/2019 17:00 573.13 0.00 -- 46.9 28.0
10/25/2019 16:00 573.12 0.00 -- 48.0 27.0
10/25/2019 15:00 573.14 0.00 -- 48.9 28.0
10/25/2019 14:00 573.12 0.00 -- 49.7 28.0
10/25/2019 13:00 573.13 0.00 -- 51.6 28.0
10/25/2019 12:00 573.14 0.00 -- 53.6 29.0
10/25/2019 11:00 573.11 0.00 -- 53.4 29.0
10/25/2019 10:00 573.13 0.00 -- 51.7 28.0
10/25/2019 09:00 573.15 0.00 -- 51.5 29.0
10/25/2019 08:00 573.13 0.00 -- 51.3 29.0
10/25/2019 07:00 573.13 0.00 -- 50.9 29.0
10/25/2019 06:00 573.14 0.00 -- 50.3 29.0
10/25/2019 05:00 573.16 0.00 -- 48.9 30.0
10/25/2019 04:00 573.16 0.00 -- 46.8 30.0
10/25/2019 03:00 573.15 0.00 -- 46.8 30.0
10/25/2019 02:00 573.16 0.00 -- 48.1 31.0
10/25/2019 01:00 573.17 0.00 -- 48.0 31.0
10/25/2019 00:00 573.16 0.00 0.07 47.7 32.0
10/24/2019 23:00 573.18 0.00 -- 46.2 32.0
10/24/2019 22:00 573.18 0.00 -- 46.7 32.0
10/24/2019 21:00 573.17 0.00 -- 48.5 31.0
10/24/2019 20:00 573.18 0.00 -- 47.6 32.0
10/24/2019 19:00 573.18 0.00 -- 48.7 33.0
10/24/2019 18:00 573.19 0.00 -- 47.0 32.0
10/24/2019 17:00 573.20 0.00 -- 49.9 33.0
10/24/2019 16:00 573.18 0.00 -- 52.8 34.0
10/24/2019 15:00 573.20 0.00 -- 54.3 35.0
10/24/2019 14:00 573.20 0.00 -- 57.2 35.0
10/24/2019 13:00 573.20 0.00 -- 61.7 34.0
10/24/2019 12:00 573.21 0.00 -- 63.7 33.0
10/24/2019 11:00 573.19 0.00 -- 63.6 31.0
10/24/2019 10:00 573.20 0.00 -- 63.6 30.0
10/24/2019 09:00 573.22 0.00 -- 61.7 29.0
10/24/2019 08:00 573.21 0.00 -- 59.4 28.0
10/24/2019 07:00 573.21 0.00 -- 56.8 28.0
10/24/2019 06:00 573.23 0.00 -- 53.4 28.0
10/24/2019 05:00 573.24 0.00 -- 46.7 28.0
10/24/2019 04:00 573.22 0.00 -- 41.4 28.0
10/24/2019 03:00 573.24 0.00 -- 40.3 28.0
10/24/2019 02:00 573.22 0.00 -- 40.7 28.0
10/24/2019 01:00 573.24 0.00 -- 40.3 28.0
10/24/2019 00:00 573.24 0.00 0.00 41.5 28.0
10/23/2019 23:00 573.25 0.00 -- 42.0 28.0
10/23/2019 22:00 573.26 0.00 -- 41.8 28.0
10/23/2019 21:00 573.25 0.00 -- 43.4 28.0
10/23/2019 20:00 573.25 0.00 -- 44.9 27.0
10/23/2019 19:00 573.26 0.00 -- 44.6 27.0
10/23/2019 18:00 573.26 0.00 -- 44.2 27.0
10/23/2019 17:00 573.27 0.00 -- 45.5 26.0
10/23/2019 16:00 573.28 0.00 -- 47.4 27.0
10/23/2019 15:00 573.29 0.00 -- 47.2 27.0
10/23/2019 14:00 573.26 0.00 -- 50.1 27.0
10/23/2019 13:00 573.28 0.00 -- 56.1 28.0
10/23/2019 12:00 573.29 0.00 -- 59.7 28.0
10/23/2019 11:00 573.26 0.00 -- 60.6 27.0
10/23/2019 10:00 573.26 0.00 -- 60.3 25.0
10/23/2019 09:00 573.28 0.00 -- 59.9 24.0
10/23/2019 08:00 573.29 0.00 -- 57.3 24.0
10/23/2019 07:00 573.30 0.00 -- 54.4 24.0
10/23/2019 06:00 573.25 0.01 -- 51.5 25.0
10/23/2019 05:00 573.39 0.06 -- 49.8 24.0
10/23/2019 04:00 573.31 0.11 -- 49.4 26.0
10/23/2019 03:00 573.27 0.15 -- 49.5 27.0
10/23/2019 02:00 573.30 0.09 -- 50.0 27.0
10/23/2019 01:00 573.29 0.07 -- 50.2 28.0
10/23/2019 00:00 573.27 0.07 0.49 50.3 27.0
10/22/2019 23:00 573.28 0.33 -- 50.5 27.0
10/22/2019 22:00 573.25 0.10 -- 50.4 27.0
10/22/2019 21:00 573.23 0.17 -- 50.4 28.0
10/22/2019 20:00 573.22 0.14 -- 50.5 27.0
10/22/2019 19:00 573.21 0.07 -- 50.5 28.0
10/22/2019 18:00 573.19 0.02 -- 50.4 28.0
10/22/2019 17:00 573.20 0.00 -- 50.4 28.0
10/22/2019 16:00 573.23 0.00 -- 50.3 28.0
10/22/2019 15:00 573.22 0.00 -- 51.1 29.0
10/22/2019 14:00 573.21 0.00 -- 51.6 28.0
10/22/2019 13:00 573.20 0.00 -- 52.5 28.0
10/22/2019 12:00 573.22 0.00 -- 53.7 28.0
10/22/2019 11:00 573.20 0.00 -- 55.2 28.0
10/22/2019 10:00 573.21 0.00 -- 55.8 29.0
10/22/2019 09:00 573.24 0.00 -- 57.1 28.0
10/22/2019 08:00 573.24 0.00 -- 57.6 28.0
10/22/2019 07:00 573.22 0.00 -- 55.4 28.0
10/22/2019 06:00 573.25 0.00 -- 50.6 28.0
10/22/2019 05:00 573.24 0.00 -- 47.1 27.0
10/22/2019 04:00 573.23 0.00 -- 45.0 27.0
10/22/2019 03:00 573.25 0.00 -- 44.2 27.0
10/22/2019 02:00 573.23 0.00 -- 43.6 27.0
10/22/2019 01:00 573.24 0.00 -- 42.6 28.0
10/22/2019 00:00 573.25 0.00 0.90 42.7 28.0
10/21/2019 23:00 573.25 0.00 -- 43.0 27.0
10/21/2019 22:00 573.23 0.00 -- 42.3 27.0
10/21/2019 21:00 573.23 0.00 -- 41.8 27.0
10/21/2019 20:00 573.25 0.00 -- 41.9 28.0
10/21/2019 19:00 573.25 0.00 -- 41.9 28.0
10/21/2019 18:00 573.23 0.00 -- 43.6 28.0
10/21/2019 17:00 573.25 0.00 -- 45.5 28.0
10/21/2019 16:00 573.26 0.00 -- 46.9 28.0
10/21/2019 15:00 573.23 0.00 -- 48.6 28.0
10/21/2019 14:00 573.25 0.00 -- 50.9 29.0
10/21/2019 13:00 573.26 0.00 -- 55.9 30.0
10/21/2019 12:00 573.25 0.00 -- 60.3 29.0
10/21/2019 11:00 573.27 0.00 -- 61.5 28.0
10/21/2019 10:00 573.27 0.00 -- 61.0 28.0
10/21/2019 09:00 573.27 0.00 -- 59.0 28.0
10/21/2019 08:00 573.28 0.00 -- 56.4 29.0
10/21/2019 07:00 573.26 0.00 -- 52.1 28.0
10/21/2019 06:00 573.26 0.00 -- 46.9 29.0
10/21/2019 05:00 573.28 0.00 -- 45.3 28.0
10/21/2019 04:00 573.28 0.00 -- 44.9 29.0
10/21/2019 03:00 573.29 0.00 -- 45.0 29.0
10/21/2019 02:00 573.27 0.00 -- 45.9 29.0
10/21/2019 01:00 573.29 0.00 -- 45.9 29.0
10/21/2019 00:00 573.31 0.00 0.00 46.8 30.0
10/20/2019 23:00 573.28 0.00 -- 47.0 31.0
10/20/2019 22:00 573.30 0.00 -- 47.1 31.0
10/20/2019 21:00 573.29 0.00 -- 47.1 31.0
10/20/2019 20:00 573.31 0.00 -- 46.9 32.0
10/20/2019 19:00 573.29 0.00 -- 46.9 32.0
10/20/2019 18:00 573.31 0.01 -- 46.9 33.0
10/20/2019 17:00 573.29 0.00 -- 47.5 32.0
10/20/2019 16:00 573.30 0.00 -- 48.0 33.0
10/20/2019 15:00 573.32 0.00 -- 48.9 34.0
10/20/2019 14:00 573.31 0.00 -- 50.1 34.0
10/20/2019 13:00 573.34 0.00 -- 51.8 34.0
10/20/2019 12:00 573.29 0.00 -- 53.8 33.0
10/20/2019 11:00 573.33 0.00 -- 54.2 32.0
10/20/2019 10:00 573.32 0.00 -- 52.6 32.0
10/20/2019 09:00 573.32 0.00 -- 51.6 33.0
10/20/2019 08:00 573.33 0.00 -- 50.7 34.0
10/20/2019 07:00 573.33 0.00 -- 46.7 32.0
10/20/2019 06:00 573.33 0.00 -- 43.0 32.0
10/20/2019 05:00 573.33 0.00 -- 40.5 31.0
10/20/2019 04:00 573.33 0.00 -- 38.0 31.0
10/20/2019 03:00 573.33 0.00 -- 35.7 33.0
10/20/2019 02:00 573.36 0.00 -- 34.8 34.0
10/20/2019 01:00 573.34 0.00 -- 33.9 35.0
10/20/2019 00:00 573.35 0.00 0.01 35.7 36.0
10/19/2019 23:00 573.35 0.00 -- 34.8 36.0
10/19/2019 22:00 573.35 0.00 -- 34.6 37.0
10/19/2019 21:00 573.35 0.00 -- 34.4 37.0
10/19/2019 20:00 573.35 0.00 -- 35.6 38.0
10/19/2019 19:00 573.35 0.00 -- 36.3 38.0
10/19/2019 18:00 573.36 0.00 -- 37.8 39.0
10/19/2019 17:00 573.36 0.00 -- 40.0 39.0
10/19/2019 16:00 573.36 0.00 -- 41.8 39.0
10/19/2019 15:00 573.37 0.00 -- 44.8 40.0
10/19/2019 14:00 573.37 0.00 -- 47.0 41.0
10/19/2019 13:00 573.37 0.00 -- 51.0 42.0
10/19/2019 12:00 573.38 0.00 -- 53.5 41.0
10/19/2019 11:00 573.37 0.00 -- 53.4 40.0
10/19/2019 10:00 573.38 0.00 -- 53.3 40.0
10/19/2019 09:00 573.40 0.00 -- 52.0 39.0
10/19/2019 08:00 573.38 0.00 -- 50.5 39.0
10/19/2019 07:00 573.37 0.00 -- 49.1 40.0
10/19/2019 06:00 573.40 0.00 -- 47.0 38.0
10/19/2019 05:00 573.42 0.00 -- 44.7 39.0
10/19/2019 04:00 573.39 0.00 -- 42.4 38.0
10/19/2019 03:00 573.39 0.00 -- 42.0 38.0
10/19/2019 02:00 573.40 0.00 -- 42.1 40.0
10/19/2019 01:00 573.40 0.00 -- 40.8 41.0
10/19/2019 00:00 573.41 0.00 0.00 41.5 41.0
10/18/2019 23:00 573.40 0.00 -- 44.0 43.0
10/18/2019 22:00 573.44 0.00 -- 44.7 43.0
10/18/2019 21:00 573.44 0.00 -- 44.3 45.0
10/18/2019 20:00 573.44 0.00 -- 45.4 45.0
10/18/2019 19:00 573.38 0.00 -- 45.5 45.0
10/18/2019 18:00 573.43 0.00 -- 46.1 50.0
10/18/2019 17:00 573.41 0.00 -- 46.6 43.0
10/18/2019 16:00 573.43 0.00 -- 46.8 41.0
10/18/2019 15:00 573.42 0.00 -- 47.3 40.0
10/18/2019 14:00 573.44 0.00 -- 47.5 40.0
10/18/2019 13:00 573.44 0.00 -- 48.5 40.0
10/18/2019 12:00 573.41 0.00 -- 49.8 40.0
10/18/2019 11:00 573.46 0.00 -- 50.6 38.0
10/18/2019 10:00 573.48 0.00 -- 51.2 39.0
10/18/2019 09:00 573.45 0.00 -- 51.2 39.0
10/18/2019 08:00 573.47 0.00 -- 51.6 36.0
10/18/2019 07:00 573.46 0.00 -- 51.1 35.0
10/18/2019 06:00 573.46 0.00 -- 50.3 33.0
10/18/2019 05:00 573.44 0.00 -- 49.7 32.0
10/18/2019 04:00 573.45 0.00 -- 48.8 33.0
10/18/2019 03:00 573.47 0.00 -- 46.5 33.0
10/18/2019 02:00 573.48 0.00 -- 47.5 32.0
10/18/2019 01:00 573.46 0.00 -- 46.8 31.0
10/18/2019 00:00 573.47 0.00 0.00 46.6 31.0
10/17/2019 23:00 573.49 0.00 -- 45.9 29.0
10/17/2019 22:00 573.51 0.00 -- 46.3 29.0
10/17/2019 21:00 573.50 0.00 -- 45.9 28.0
10/17/2019 20:00 573.47 0.00 -- 44.6 28.0
10/17/2019 19:00 573.46 0.00 -- 45.1 29.0
10/17/2019 18:00 573.50 0.00 -- 45.5 28.0
10/17/2019 17:00 573.50 0.00 -- 46.6 28.0
10/17/2019 16:00 573.48 0.00 -- 46.8 28.0
10/17/2019 15:00 573.52 0.01 -- 47.0 27.0
10/17/2019 14:00 573.53 0.00 -- 47.8 28.0
10/17/2019 13:00 573.51 0.00 -- 48.2 29.0
10/17/2019 12:00 573.51 0.01 -- 47.4 31.0
10/17/2019 11:00 573.51 0.02 -- 46.8 35.0
10/17/2019 10:00 573.49 0.03 -- 45.5 43.0
10/17/2019 09:00 573.50 0.03 -- 44.9 44.0
10/17/2019 08:00 573.49 0.02 -- 45.3 44.0
10/17/2019 07:00 573.52 0.02 -- 46.8 44.0
10/17/2019 06:00 573.46 0.00 -- 48.1 44.0
10/17/2019 05:00 573.47 0.01 -- 50.9 45.0
10/17/2019 04:00 573.52 0.08 -- 55.0 46.0
10/17/2019 03:00 573.51 0.04 -- 54.4 47.0
10/17/2019 02:00 573.50 0.16 -- 53.9 47.0
10/17/2019 01:00 573.47 0.32 -- 51.8 46.0
10/17/2019 00:00 573.38 0.51 0.75 50.7 48.0
10/16/2019 23:00 573.38 0.35 -- 51.2 48.0
10/16/2019 22:00 573.39 0.24 -- 51.4 50.0
10/16/2019 21:00 573.35 0.19 -- 51.3 52.0
10/16/2019 20:00 573.31 0.07 -- 50.9 55.0
10/16/2019 19:00 573.30 0.02 -- 50.3 57.0
10/16/2019 18:00 573.33 0.00 -- 50.4 59.0
10/16/2019 17:00 573.33 0.00 -- 51.0 62.0
10/16/2019 16:00 573.34 0.00 -- 51.0 61.0
10/16/2019 15:00 573.32 0.00 -- 51.1 62.0
10/16/2019 14:00 573.33 0.00 -- 51.7 62.0
10/16/2019 13:00 573.34 0.00 -- 53.1 61.0
10/16/2019 12:00 573.35 0.00 -- 53.3 61.0
10/16/2019 11:00 573.32 0.00 -- 55.1 62.0
10/16/2019 10:00 573.36 0.00 -- 55.8 60.0
10/16/2019 09:00 573.36 0.00 -- 56.2 58.0
10/16/2019 08:00 573.35 0.00 -- 57.0 54.0
10/16/2019 07:00 573.34 0.00 -- 54.9 54.0
10/16/2019 06:00 573.36 0.00 -- 49.9 53.0
10/16/2019 05:00 573.35 0.00 -- 43.5 47.0
10/16/2019 04:00 573.33 0.00 -- 38.4 47.0
10/16/2019 03:00 573.36 0.00 -- 35.9 53.0
10/16/2019 02:00 573.36 0.00 -- 35.7 58.0
10/16/2019 01:00 573.36 0.00 -- 35.1 62.0
10/16/2019 00:00 573.37 0.00 1.38 35.1 67.0
10/15/2019 23:00 573.36 0.00 -- 36.2 69.0
10/15/2019 22:00 573.38 0.00 -- 36.6 73.0
10/15/2019 21:00 573.39 0.00 -- 36.9 75.0
10/15/2019 20:00 573.39 0.00 -- 37.6 81.0
10/15/2019 19:00 573.38 0.00 -- 38.1 86.0
10/15/2019 18:00 573.38 0.00 -- 39.0 89.0
10/15/2019 17:00 573.39 0.00 -- 40.0 92.0
10/15/2019 16:00 573.38 0.00 -- 41.5 96.0
10/15/2019 15:00 573.39 0.00 -- 43.4 98.0
10/15/2019 14:00 573.40 0.00 -- 46.7 98.0
10/15/2019 13:00 573.39 0.00 -- 52.7 100.0
10/15/2019 12:00 573.41 0.00 -- 55.6 100.0
10/15/2019 11:00 573.40 0.00 -- 55.3 99.0
10/15/2019 10:00 573.41 0.00 -- 54.8 95.0
10/15/2019 09:00 573.41 0.00 -- 54.0 94.0
10/15/2019 08:00 573.43 0.00 -- 53.2 89.0
10/15/2019 07:00 573.43 0.00 -- 52.1 84.0
10/15/2019 06:00 573.41 0.00 -- 50.8 81.0
10/15/2019 05:00 573.42 0.00 -- 49.2 77.0
10/15/2019 04:00 573.43 0.00 -- 45.5 79.0
10/15/2019 03:00 573.42 0.00 -- 42.1 81.0
10/15/2019 02:00 573.41 0.00 -- 43.7 81.0
10/15/2019 01:00 573.43 0.00 -- 47.7 81.0
10/15/2019 00:00 573.43 0.00 0.00 49.2 88.0
10/14/2019 23:00 573.43 0.00 -- 49.0 89.0
10/14/2019 22:00 573.44 0.00 -- 50.3 94.0
10/14/2019 21:00 573.45 0.00 -- 51.7 98.0
10/14/2019 20:00 573.45 0.00 -- 52.2 99.0
10/14/2019 19:00 573.43 0.00 -- 53.7 97.0
10/14/2019 18:00 573.44 0.00 -- 53.0 100.0
10/14/2019 17:00 573.46 0.00 -- 54.1 100.0
10/14/2019 16:00 573.45 0.00 -- 54.2 100.0
10/14/2019 15:00 573.45 0.00 -- 54.4 100.0
10/14/2019 14:00 573.48 0.00 -- 55.2 100.0
10/14/2019 13:00 573.47 0.00 -- 58.2 100.0
10/14/2019 12:00 573.47 0.00 -- 61.1 100.0
10/14/2019 11:00 573.47 0.00 -- 62.2 100.0
10/14/2019 10:00 573.48 0.00 -- 62.8 100.0
10/14/2019 09:00 573.49 0.00 -- 61.0 100.0
10/14/2019 08:00 573.49 0.00 -- 56.5 89.0
10/14/2019 07:00 573.48 0.00 -- 50.3 100.0
10/14/2019 06:00 573.49 0.00 -- 46.6 100.0
10/14/2019 05:00 573.47 0.00 -- 44.1 100.0
10/14/2019 04:00 573.48 0.00 -- 43.6 100.0
10/14/2019 03:00 573.48 0.00 -- 42.9 100.0
10/14/2019 02:00 573.48 0.00 -- 43.4 100.0
10/14/2019 01:00 573.50 0.00 -- 44.7 100.0
10/14/2019 00:00 573.51 0.00 0.00 45.7 100.0
10/13/2019 23:00 573.50 0.00 -- 46.6 100.0
10/13/2019 22:00 573.49 0.00 -- 47.6 100.0
10/13/2019 21:00 573.50 0.00 -- 47.8 100.0
10/13/2019 20:00 573.52 0.00 -- 49.6 100.0
10/13/2019 19:00 573.51 0.00 -- 51.5 100.0
10/13/2019 18:00 573.50 0.00 -- 51.9 100.0
10/13/2019 17:00 573.50 0.00 -- 52.1 100.0
10/13/2019 16:00 573.51 0.00 -- 53.7 100.0
10/13/2019 15:00 573.49 0.00 -- 55.1 100.0
10/13/2019 14:00 573.49 0.00 -- 54.5 100.0
10/13/2019 13:00 573.50 0.00 -- 59.3 100.0
10/13/2019 12:00 573.51 0.00 -- 62.2 100.0
10/13/2019 11:00 573.50 0.00 -- 63.5 100.0
10/13/2019 10:00 573.50 0.00 -- 61.6 88.0
10/13/2019 09:00 573.50 0.00 -- 60.6 68.0
10/13/2019 08:00 573.50 0.00 -- 59.7 61.0
10/13/2019 07:00 573.50 0.00 -- 57.9 72.0
10/13/2019 06:00 573.52 0.00 -- 57.2 73.0
10/13/2019 05:00 573.52 0.00 -- 55.6 89.0
10/13/2019 04:00 573.51 0.00 -- 53.1 95.0
10/13/2019 03:00 573.52 0.00 -- 50.8 98.0
10/13/2019 02:00 573.51 0.00 -- 49.5 100.0
10/13/2019 01:00 573.51 0.00 -- 48.5 100.0
10/13/2019 00:00 573.51 0.00 0.00 49.3 100.0
10/12/2019 23:00 573.53 0.00 -- 50.8 100.0
10/12/2019 22:00 573.52 0.00 -- 50.8 100.0
10/12/2019 21:00 573.51 0.00 -- 50.5 100.0
10/12/2019 20:00 573.52 0.00 -- 49.9 100.0
10/12/2019 19:00 573.55 0.00 -- 49.3 100.0
10/12/2019 18:00 573.51 0.00 -- 49.5 100.0
10/12/2019 17:00 573.52 0.00 -- 51.2 100.0
10/12/2019 16:00 573.53 0.00 -- 52.9 100.0
10/12/2019 15:00 573.52 0.00 -- 53.1 100.0
10/12/2019 14:00 573.51 0.00 -- 53.6 100.0
10/12/2019 13:00 573.53 0.00 -- 54.1 100.0
10/12/2019 12:00 573.52 0.00 -- 54.6 100.0
10/12/2019 11:00 573.54 0.00 -- 55.3 100.0
10/12/2019 10:00 573.53 0.00 -- 53.9 100.0
10/12/2019 09:00 573.53 0.00 -- 52.8 100.0
10/12/2019 08:00 573.54 0.00 -- 52.0 100.0
10/12/2019 07:00 573.53 0.00 -- 50.5 100.0
10/12/2019 06:00 573.54 0.00 -- 49.7 100.0
10/12/2019 05:00 573.53 0.01 -- 48.8 100.0
10/12/2019 04:00 573.53 0.00 -- 48.4 100.0
10/12/2019 03:00 573.53 0.00 -- 48.4 100.0
10/12/2019 02:00 573.53 0.00 -- 48.2 100.0
10/12/2019 01:00 573.55 0.00 -- 48.6 100.0
10/12/2019 00:00 573.55 0.00 0.01 49.3 100.0
10/11/2019 23:00 573.53 0.00 -- 50.1 100.0
10/11/2019 22:00 573.55 0.00 -- 50.7 100.0
10/11/2019 21:00 573.53 0.00 -- 52.1 100.0
10/11/2019 20:00 573.55 0.00 -- 52.6 100.0
10/11/2019 19:00 573.54 0.00 -- 53.6 100.0
10/11/2019 18:00 573.55 0.00 -- 54.5 100.0
10/11/2019 17:00 573.55 0.00 -- 55.2 100.0
10/11/2019 16:00 573.55 0.00 -- 56.0 100.0
10/11/2019 15:00 573.56 0.00 -- 56.5 100.0
10/11/2019 14:00 573.55 0.00 -- 57.1 100.0
10/11/2019 13:00 573.54 0.00 -- 57.4 100.0
10/11/2019 12:00 573.54 0.00 -- 57.6 100.0
10/11/2019 11:00 573.56 0.00 -- 57.5 100.0
10/11/2019 10:00 573.54 0.00 -- 57.0 100.0
10/11/2019 09:00 573.58 0.00 -- 57.1 100.0
10/11/2019 08:00 573.56 0.00 -- 56.5 100.0
10/11/2019 07:00 573.54 0.00 -- 55.4 100.0
10/11/2019 06:00 573.55 0.00 -- 52.1 100.0
10/11/2019 05:00 573.60 0.00 -- 50.5 100.0
10/11/2019 04:00 573.58 0.00 -- 49.1 100.0
10/11/2019 03:00 573.60 0.00 -- 47.7 100.0
10/11/2019 02:00 573.57 0.00 -- 47.2 100.0
10/11/2019 01:00 573.54 0.00 -- 47.4 100.0
10/11/2019 00:00 573.57 0.00 0.00 47.9 100.0
10/10/2019 23:00 573.59 0.00 -- 48.3 100.0
10/10/2019 22:00 573.58 0.00 -- 49.4 100.0
10/10/2019 21:00 573.58 0.00 -- 50.7 100.0
10/10/2019 20:00 573.56 0.00 -- 51.6 100.0
10/10/2019 19:00 573.59 0.00 -- 52.5 100.0
10/10/2019 18:00 573.58 0.00 -- 52.9 100.0
10/10/2019 17:00 573.57 0.00 -- 51.4 100.0
10/10/2019 16:00 573.58 0.00 -- 50.5 100.0
10/10/2019 15:00 573.58 0.00 -- 52.1 100.0
10/10/2019 14:00 573.59 0.00 -- 53.7 100.0
10/10/2019 13:00 573.59 0.00 -- 54.4 100.0
10/10/2019 12:00 573.57 0.00 -- 55.7 100.0
10/10/2019 11:00 573.56 0.00 -- 55.9 100.0
10/10/2019 10:00 -- -- -- 56.4 100.0
10/10/2019 09:00 -- -- -- 55.6 100.0
10/10/2019 08:00 -- -- -- 54.6 100.0
10/10/2019 07:00 -- -- -- 52.2 100.0
10/10/2019 06:00 -- -- -- 51.6 100.0
10/10/2019 05:00 -- -- -- 50.0 100.0
10/10/2019 04:00 -- -- -- 48.0 100.0
10/10/2019 03:00 -- -- -- 47.0 100.0
10/10/2019 02:00 -- -- -- 46.5 100.0
10/10/2019 01:00 -- -- -- 45.9 100.0
10/10/2019 00:00 -- -- 0.00 46.2 100.0